Time,TemperatureF,DewpointF,PressureIn,WindDirection,WindDirectionDegrees,WindSpeedMPH,WindSpeedGustMPH,Humidity,HourlyPrecipIn,Conditions,Clouds,dailyrainin,SoftwareType,DateUTC
2013-02-13 00:01:00,31.3,9.8,29.76,NNW,338,0.2,3.1,40,0.00,,,0.00,WUHU216HW,2013-02-13 07:01:00,
2013-02-13 00:02:00,31.3,9.8,29.76,NNW,338,0.2,3.1,40,0.00,,,0.00,WUHU216HW,2013-02-13 07:02:00,
2013-02-13 00:03:00,31.3,9.8,29.76,NNW,338,0.2,3.1,40,0.00,,,0.00,WUHU216HW,2013-02-13 07:03:00,
2013-02-13 00:04:00,31.3,9.8,29.76,West,270,0.4,3.1,40,0.00,,,0.00,WUHU216HW,2013-02-13 07:04:00,
2013-02-13 00:06:00,31.1,9.6,29.77,North,0,0.9,2.2,40,0.00,,,0.00,WUHU216HW,2013-02-13 07:06:00,
2013-02-13 00:07:00,31.1,9.6,29.77,NNW,338,0.9,1.8,40,0.00,,,0.00,WUHU216HW,2013-02-13 07:07:00,
2013-02-13 00:08:00,31.1,9.6,29.77,NNW,338,0.9,1.8,40,0.00,,,0.00,WUHU216HW,2013-02-13 07:08:00,
2013-02-13 00:09:00,31.1,9.6,29.76,North,0,2.7,2.7,40,0.00,,,0.00,WUHU216HW,2013-02-13 07:09:00,
2013-02-13 00:11:00,31.1,10.2,29.76,North,0,4.0,4.0,41,0.00,,,0.00,WUHU216HW,2013-02-13 07:11:00,
2013-02-13 00:13:00,31.1,10.2,29.76,NNW,338,3.4,4.0,41,0.00,,,0.00,WUHU216HW,2013-02-13 07:13:00,
2013-02-13 00:14:00,31.1,10.6,29.76,North,0,5.6,6.9,42,0.00,,,0.00,WUHU216HW,2013-02-13 07:14:00,
2013-02-13 00:16:00,31.1,10.6,29.76,NW,315,6.3,6.9,42,0.00,,,0.00,WUHU216HW,2013-02-13 07:16:00,
2013-02-13 00:18:00,31.1,10.6,29.76,NW,315,2.5,6.9,42,0.00,,,0.00,WUHU216HW,2013-02-13 07:18:00,
2013-02-13 00:19:00,31.0,10.4,29.76,NE,45,2.7,6.9,42,0.00,,,0.00,WUHU216HW,2013-02-13 07:19:00,
2013-02-13 00:21:00,31.1,11.2,29.76,NNE,23,2.5,6.9,43,0.00,,,0.00,WUHU216HW,2013-02-13 07:21:00,
2013-02-13 00:23:00,31.1,11.2,29.76,North,0,5.6,6.3,43,0.00,,,0.00,WUHU216HW,2013-02-13 07:23:00,
2013-02-13 00:24:00,31.1,11.2,29.77,North,0,3.6,6.3,43,0.00,,,0.00,WUHU216HW,2013-02-13 07:24:00,
2013-02-13 00:27:00,31.1,11.2,29.77,NNE,23,4.0,5.6,43,0.00,,,0.00,WUHU216HW,2013-02-13 07:27:00,
2013-02-13 00:28:00,31.1,11.2,29.77,North,0,2.2,5.6,43,0.00,,,0.00,WUHU216HW,2013-02-13 07:28:00,
2013-02-13 00:29:00,31.1,11.2,29.77,NNE,23,4.0,5.6,43,0.00,,,0.00,WUHU216HW,2013-02-13 07:29:00,
2013-02-13 00:32:00,31.3,11.4,29.76,North,0,5.4,5.4,43,0.00,,,0.00,WUHU216HW,2013-02-13 07:32:00,
2013-02-13 00:33:00,31.3,11.4,29.76,North,0,4.9,5.4,43,0.00,,,0.00,WUHU216HW,2013-02-13 07:33:00,
2013-02-13 00:34:00,31.3,11.4,29.76,North,0,3.6,5.4,43,0.00,,,0.00,WUHU216HW,2013-02-13 07:34:00,
2013-02-13 00:37:00,31.3,11.4,29.76,North,0,4.9,5.4,43,0.00,,,0.00,WUHU216HW,2013-02-13 07:37:00,
2013-02-13 00:38:00,31.3,11.4,29.76,North,0,4.5,5.4,43,0.00,,,0.00,WUHU216HW,2013-02-13 07:38:00,
2013-02-13 00:39:00,31.3,11.4,29.76,North,0,4.5,5.4,43,0.00,,,0.00,WUHU216HW,2013-02-13 07:39:00,
2013-02-13 00:43:00,31.1,11.2,29.76,NNW,338,3.1,7.6,43,0.00,,,0.00,WUHU216HW,2013-02-13 07:43:00,
2013-02-13 00:44:00,31.1,11.2,29.76,North,0,4.9,7.6,43,0.00,,,0.00,WUHU216HW,2013-02-13 07:44:00,
2013-02-13 00:48:00,31.1,11.2,29.76,North,0,2.2,7.6,43,0.00,,,0.00,WUHU216HW,2013-02-13 07:48:00,
2013-02-13 00:49:00,31.1,11.2,29.77,North,0,4.7,7.6,43,0.00,,,0.00,WUHU216HW,2013-02-13 07:49:00,
2013-02-13 00:53:00,31.0,11.5,29.77,NW,315,2.7,5.8,44,0.00,,,0.00,WUHU216HW,2013-02-13 07:53:00,
2013-02-13 00:54:00,31.0,11.5,29.77,NW,315,2.7,4.7,44,0.00,,,0.00,WUHU216HW,2013-02-13 07:54:00,
2013-02-13 00:58:00,30.8,11.4,29.76,North,0,1.1,4.0,44,0.00,,,0.00,WUHU216HW,2013-02-13 07:58:00,
2013-02-13 00:59:00,30.8,11.4,29.76,North,0,1.1,4.0,44,0.00,,,0.00,WUHU216HW,2013-02-13 07:59:00,
2013-02-13 01:03:00,30.8,11.4,29.77,North,0,1.3,4.0,44,0.00,,,0.00,WUHU216HW,2013-02-13 08:03:00,
2013-02-13 01:04:00,30.8,11.4,29.77,North,0,1.3,4.0,44,0.00,,,0.00,WUHU216HW,2013-02-13 08:04:00,
2013-02-13 01:05:00,30.8,10.8,29.77,NW,315,2.0,4.0,43,0.00,,,0.00,WUHU216HW,2013-02-13 08:05:00,
2013-02-13 01:08:00,30.6,10.6,29.77,NNW,338,2.2,2.2,43,0.00,,,0.00,WUHU216HW,2013-02-13 08:08:00,
2013-02-13 01:09:00,30.6,10.6,29.77,NW,315,1.1,2.2,43,0.00,,,0.00,WUHU216HW,2013-02-13 08:09:00,
2013-02-13 01:10:00,30.6,10.6,29.77,NNW,338,2.2,2.2,43,0.00,,,0.00,WUHU216HW,2013-02-13 08:10:00,
2013-02-13 01:13:00,30.6,10.6,29.77,NNW,338,0.2,2.2,43,0.00,,,0.00,WUHU216HW,2013-02-13 08:13:00,
2013-02-13 01:14:00,30.6,10.6,29.77,WNW,293,0.2,2.2,43,0.00,,,0.00,WUHU216HW,2013-02-13 08:14:00,
2013-02-13 01:15:00,30.6,10.6,29.76,NW,315,0.7,2.2,43,0.00,,,0.00,WUHU216HW,2013-02-13 08:15:00,
2013-02-13 01:18:00,30.6,10.6,29.76,NW,315,1.8,2.2,43,0.00,,,0.00,WUHU216HW,2013-02-13 08:18:00,
2013-02-13 01:19:00,30.6,10.6,29.77,WNW,293,2.0,2.2,43,0.00,,,0.00,WUHU216HW,2013-02-13 08:19:00,
2013-02-13 01:20:00,30.6,10.6,29.77,West,270,1.8,2.2,43,0.00,,,0.00,WUHU216HW,2013-02-13 08:20:00,
2013-02-13 01:24:00,30.6,10.6,29.76,NNW,338,1.8,2.2,43,0.00,,,0.00,WUHU216HW,2013-02-13 08:24:00,
2013-02-13 01:25:00,30.6,10.6,29.76,NW,315,0.4,2.2,43,0.00,,,0.00,WUHU216HW,2013-02-13 08:25:00,
2013-02-13 01:29:00,30.6,10.2,29.76,NW,315,1.1,1.8,42,0.00,,,0.00,WUHU216HW,2013-02-13 08:29:00,
2013-02-13 01:30:00,30.4,10.0,29.77,North,0,1.6,1.8,42,0.00,,,0.00,WUHU216HW,2013-02-13 08:30:00,
2013-02-13 01:34:00,30.2,9.8,29.77,NNW,338,1.6,2.9,42,0.00,,,0.00,WUHU216HW,2013-02-13 08:34:00,
2013-02-13 01:35:00,30.2,9.8,29.77,NNW,338,1.6,2.9,42,0.00,,,0.00,WUHU216HW,2013-02-13 08:35:00,
2013-02-13 01:39:00,29.9,9.6,29.76,NW,315,0.7,2.9,42,0.00,,,0.00,WUHU216HW,2013-02-13 08:39:00,
2013-02-13 01:40:00,29.9,9.6,29.76,NW,315,0.7,2.9,42,0.00,,,0.00,WUHU216HW,2013-02-13 08:40:00,
2013-02-13 01:44:00,29.5,9.7,29.76,NNW,338,2.5,2.5,43,0.00,,,0.00,WUHU216HW,2013-02-13 08:44:00,
2013-02-13 01:45:00,29.5,9.7,29.76,NNW,338,2.5,2.5,43,0.00,,,0.00,WUHU216HW,2013-02-13 08:45:00,
2013-02-13 01:46:00,29.5,9.7,29.76,North,0,2.0,2.5,43,0.00,,,0.00,WUHU216HW,2013-02-13 08:46:00,
2013-02-13 01:49:00,29.3,9.6,29.77,NNW,338,2.2,2.5,43,0.00,,,0.00,WUHU216HW,2013-02-13 08:49:00,
2013-02-13 01:50:00,29.3,9.6,29.77,NNW,338,2.2,2.5,43,0.00,,,0.00,WUHU216HW,2013-02-13 08:50:00,
2013-02-13 01:51:00,29.3,9.6,29.76,NNW,338,2.9,2.9,43,0.00,,,0.00,WUHU216HW,2013-02-13 08:51:00,
2013-02-13 01:55:00,29.2,9.9,29.77,North,0,2.0,2.9,44,0.00,,,0.00,WUHU216HW,2013-02-13 08:55:00,
2013-02-13 01:56:00,29.2,9.9,29.76,NNW,338,1.3,2.9,44,0.00,,,0.00,WUHU216HW,2013-02-13 08:56:00,
2013-02-13 02:00:00,29.2,9.9,29.76,West,270,0.4,2.9,44,0.00,,,0.00,WUHU216HW,2013-02-13 09:00:00,
2013-02-13 02:01:00,29.3,9.6,29.76,NW,315,0.0,2.2,43,0.00,,,0.00,WUHU216HW,2013-02-13 09:01:00,
2013-02-13 02:05:00,29.3,9.6,29.76,North,0,1.3,1.8,43,0.00,,,0.00,WUHU216HW,2013-02-13 09:05:00,
2013-02-13 02:06:00,29.3,9.6,29.76,North,0,1.3,1.8,43,0.00,,,0.00,WUHU216HW,2013-02-13 09:06:00,
2013-02-13 02:10:00,29.2,9.9,29.77,WNW,293,2.0,2.0,44,0.00,,,0.00,WUHU216HW,2013-02-13 09:10:00,
2013-02-13 02:11:00,29.2,9.9,29.77,WNW,293,2.0,2.0,44,0.00,,,0.00,WUHU216HW,2013-02-13 09:11:00,
2013-02-13 02:15:00,29.3,10.0,29.76,NW,315,1.8,2.0,44,0.00,,,0.00,WUHU216HW,2013-02-13 09:15:00,
2013-02-13 02:16:00,29.3,10.0,29.76,WNW,293,0.4,2.0,44,0.00,,,0.00,WUHU216HW,2013-02-13 09:16:00,
2013-02-13 02:17:00,29.3,10.0,29.76,WNW,293,0.4,2.0,44,0.00,,,0.00,WUHU216HW,2013-02-13 09:17:00,
2013-02-13 02:20:00,29.3,10.0,29.76,West,270,1.6,2.2,44,0.00,,,0.00,WUHU216HW,2013-02-13 09:20:00,
2013-02-13 02:21:00,29.2,9.9,29.76,West,270,1.6,2.2,44,0.00,,,0.00,WUHU216HW,2013-02-13 09:21:00,
2013-02-13 02:22:00,29.2,9.9,29.76,West,270,1.6,2.2,44,0.00,,,0.00,WUHU216HW,2013-02-13 09:22:00,
2013-02-13 02:25:00,29.2,9.4,29.77,NW,315,0.2,2.2,43,0.00,,,0.00,WUHU216HW,2013-02-13 09:25:00,
2013-02-13 02:26:00,29.2,9.4,29.76,West,270,1.1,2.2,43,0.00,,,0.00,WUHU216HW,2013-02-13 09:26:00,
2013-02-13 02:27:00,29.2,9.4,29.76,West,270,1.1,2.2,43,0.00,,,0.00,WUHU216HW,2013-02-13 09:27:00,
2013-02-13 02:30:00,29.2,9.4,29.76,NW,315,0.0,1.6,43,0.00,,,0.00,WUHU216HW,2013-02-13 09:30:00,
2013-02-13 02:31:00,29.2,9.4,29.76,NW,315,0.0,1.6,43,0.00,,,0.00,WUHU216HW,2013-02-13 09:31:00,
2013-02-13 02:32:00,29.2,9.4,29.76,NNW,338,0.7,1.6,43,0.00,,,0.00,WUHU216HW,2013-02-13 09:32:00,
2013-02-13 02:36:00,29.0,9.2,29.76,WNW,293,1.6,1.6,43,0.00,,,0.00,WUHU216HW,2013-02-13 09:36:00,
2013-02-13 02:37:00,29.0,9.2,29.76,NW,315,0.0,1.6,43,0.00,,,0.00,WUHU216HW,2013-02-13 09:37:00,
2013-02-13 02:41:00,29.0,9.2,29.76,NW,315,1.8,1.8,43,0.00,,,0.00,WUHU216HW,2013-02-13 09:41:00,
2013-02-13 02:42:00,28.8,9.5,29.76,NNW,338,0.4,2.5,44,0.00,,,0.00,WUHU216HW,2013-02-13 09:42:00,
2013-02-13 02:46:00,28.6,8.9,29.76,West,270,2.0,2.5,43,0.00,,,0.00,WUHU216HW,2013-02-13 09:46:00,
2013-02-13 02:47:00,28.6,9.4,29.76,NW,315,0.4,2.5,44,0.00,,,0.00,WUHU216HW,2013-02-13 09:47:00,
2013-02-13 02:51:00,28.6,9.4,29.76,NW,315,0.0,2.5,44,0.00,,,0.00,WUHU216HW,2013-02-13 09:51:00,
2013-02-13 02:52:00,28.6,9.4,29.76,WNW,293,1.6,2.2,44,0.00,,,0.00,WUHU216HW,2013-02-13 09:52:00,
2013-02-13 02:56:00,28.6,9.4,29.76,West,270,1.3,2.2,44,0.00,,,0.00,WUHU216HW,2013-02-13 09:56:00,
2013-02-13 02:57:00,28.6,9.4,29.76,WNW,293,0.4,1.8,44,0.00,,,0.00,WUHU216HW,2013-02-13 09:57:00,
2013-02-13 03:01:00,28.4,9.2,29.76,WNW,293,0.0,1.6,44,0.00,,,0.00,WUHU216HW,2013-02-13 10:01:00,
2013-02-13 03:02:00,28.4,9.2,29.76,WNW,293,1.3,1.6,44,0.00,,,0.00,WUHU216HW,2013-02-13 10:02:00,
2013-02-13 03:03:00,28.4,9.2,29.76,WNW,293,0.2,1.3,44,0.00,,,0.00,WUHU216HW,2013-02-13 10:03:00,
2013-02-13 03:06:00,28.4,9.2,29.76,NW,315,0.7,1.8,44,0.00,,,0.00,WUHU216HW,2013-02-13 10:06:00,
2013-02-13 03:07:00,28.4,9.2,29.76,WNW,293,1.3,1.8,44,0.00,,,0.00,WUHU216HW,2013-02-13 10:07:00,
2013-02-13 03:08:00,28.4,9.2,29.76,West,270,1.6,1.8,44,0.00,,,0.00,WUHU216HW,2013-02-13 10:08:00,
2013-02-13 03:11:00,28.4,9.2,29.76,WNW,293,1.8,1.8,44,0.00,,,0.00,WUHU216HW,2013-02-13 10:11:00,
2013-02-13 03:12:00,28.4,9.2,29.76,WNW,293,1.6,1.8,44,0.00,,,0.00,WUHU216HW,2013-02-13 10:12:00,
2013-02-13 03:13:00,28.4,9.2,29.76,WNW,293,1.3,1.8,44,0.00,,,0.00,WUHU216HW,2013-02-13 10:13:00,
2013-02-13 03:17:00,28.4,9.2,29.76,WNW,293,0.2,1.8,44,0.00,,,0.00,WUHU216HW,2013-02-13 10:17:00,
2013-02-13 03:20:00,28.4,9.2,29.76,West,270,0.4,1.6,44,0.00,,,0.00,WUHU216HW,2013-02-13 10:20:00,
2013-02-13 03:22:00,28.4,9.2,29.76,NW,315,0.0,1.6,44,0.00,,,0.00,WUHU216HW,2013-02-13 10:22:00,
2013-02-13 03:23:00,28.4,9.2,29.76,NW,315,0.2,1.6,44,0.00,,,0.00,WUHU216HW,2013-02-13 10:23:00,
2013-02-13 03:26:00,28.4,9.2,29.76,West,270,1.8,1.8,44,0.00,,,0.00,WUHU216HW,2013-02-13 10:26:00,
2013-02-13 03:27:00,28.4,9.2,29.76,West,270,0.9,1.8,44,0.00,,,0.00,WUHU216HW,2013-02-13 10:27:00,
2013-02-13 03:28:00,28.4,9.2,29.76,West,270,0.0,1.8,44,0.00,,,0.00,WUHU216HW,2013-02-13 10:28:00,
2013-02-13 03:31:00,28.4,9.2,29.76,NW,315,0.0,1.8,44,0.00,,,0.00,WUHU216HW,2013-02-13 10:31:00,
2013-02-13 03:32:00,28.4,9.2,29.76,NW,315,0.0,1.8,44,0.00,,,0.00,WUHU216HW,2013-02-13 10:32:00,
2013-02-13 03:33:00,28.4,9.2,29.76,West,270,0.0,1.8,44,0.00,,,0.00,WUHU216HW,2013-02-13 10:33:00,
2013-02-13 03:36:00,28.4,9.2,29.76,WNW,293,0.0,1.3,44,0.00,,,0.00,WUHU216HW,2013-02-13 10:36:00,
2013-02-13 03:37:00,28.3,9.1,29.76,WNW,293,2.0,2.0,44,0.00,,,0.00,WUHU216HW,2013-02-13 10:37:00,
2013-02-13 03:38:00,28.3,9.1,29.76,West,270,1.6,2.0,44,0.00,,,0.00,WUHU216HW,2013-02-13 10:38:00,
2013-02-13 03:41:00,28.1,8.9,29.76,West,270,1.8,2.0,44,0.00,,,0.00,WUHU216HW,2013-02-13 10:41:00,
2013-02-13 03:42:00,28.1,8.9,29.76,WNW,293,1.6,2.0,44,0.00,,,0.00,WUHU216HW,2013-02-13 10:42:00,
2013-02-13 03:43:00,28.1,8.9,29.76,West,270,1.1,2.0,44,0.00,,,0.00,WUHU216HW,2013-02-13 10:43:00,
2013-02-13 03:44:00,28.1,8.9,29.76,West,270,1.1,2.0,44,0.00,,,0.00,WUHU216HW,2013-02-13 10:44:00,
2013-02-13 03:46:00,28.1,8.9,29.76,West,270,3.1,3.4,44,0.00,,,0.00,WUHU216HW,2013-02-13 10:46:00,
2013-02-13 03:47:00,28.1,8.9,29.76,West,270,2.0,3.4,44,0.00,,,0.00,WUHU216HW,2013-02-13 10:47:00,
2013-02-13 03:49:00,27.9,8.7,29.76,WSW,248,2.7,3.4,44,0.00,,,0.00,WUHU216HW,2013-02-13 10:49:00,
2013-02-13 03:51:00,27.9,8.7,29.76,WSW,248,2.5,3.4,44,0.00,,,0.00,WUHU216HW,2013-02-13 10:51:00,
2013-02-13 03:52:00,27.9,8.7,29.76,WSW,248,0.0,3.4,44,0.00,,,0.00,WUHU216HW,2013-02-13 10:52:00,
2013-02-13 03:54:00,27.7,8.6,29.76,SE,135,0.4,3.4,44,0.00,,,0.00,WUHU216HW,2013-02-13 10:54:00,
2013-02-13 03:56:00,27.7,8.6,29.76,SE,135,0.0,3.1,44,0.00,,,0.00,WUHU216HW,2013-02-13 10:56:00,
2013-02-13 03:58:00,27.7,8.6,29.75,NNW,338,0.0,3.1,44,0.00,,,0.00,WUHU216HW,2013-02-13 10:58:00,
2013-02-13 03:59:00,27.7,8.6,29.75,East,90,0.0,3.1,44,0.00,,,0.00,WUHU216HW,2013-02-13 10:59:00,
2013-02-13 04:01:00,27.5,8.4,29.75,East,90,0.0,2.5,44,0.00,,,0.00,WUHU216HW,2013-02-13 11:01:00,
2013-02-13 04:03:00,27.5,8.4,29.75,East,90,0.0,1.8,44,0.00,,,0.00,WUHU216HW,2013-02-13 11:03:00,
2013-02-13 04:04:00,27.5,8.4,29.75,North,0,0.2,0.4,44,0.00,,,0.00,WUHU216HW,2013-02-13 11:04:00,
2013-02-13 04:07:00,27.5,8.4,29.75,NNW,338,0.0,0.4,44,0.00,,,0.00,WUHU216HW,2013-02-13 11:07:00,
2013-02-13 04:08:00,27.5,8.4,29.75,NNW,338,0.2,0.7,44,0.00,,,0.00,WUHU216HW,2013-02-13 11:08:00,
2013-02-13 04:09:00,27.5,8.4,29.75,NNW,338,0.0,0.7,44,0.00,,,0.00,WUHU216HW,2013-02-13 11:09:00,
2013-02-13 04:12:00,27.5,8.9,29.75,WNW,293,0.0,1.8,45,0.00,,,0.00,WUHU216HW,2013-02-13 11:12:00,
2013-02-13 04:13:00,27.4,8.7,29.75,WNW,293,0.2,1.8,45,0.00,,,0.00,WUHU216HW,2013-02-13 11:13:00,
2013-02-13 04:14:00,27.5,8.9,29.75,WNW,293,0.0,1.8,45,0.00,,,0.00,WUHU216HW,2013-02-13 11:14:00,
2013-02-13 04:17:00,27.4,8.7,29.75,NNW,338,0.2,1.8,45,0.00,,,0.00,WUHU216HW,2013-02-13 11:17:00,
2013-02-13 04:19:00,27.4,8.7,29.75,NW,315,0.0,1.8,45,0.00,,,0.00,WUHU216HW,2013-02-13 11:19:00,
2013-02-13 04:20:00,27.4,8.7,29.75,NNW,338,0.0,1.8,45,0.00,,,0.00,WUHU216HW,2013-02-13 11:20:00,
2013-02-13 04:22:00,27.4,8.7,29.75,West,270,2.5,2.5,45,0.00,,,0.00,WUHU216HW,2013-02-13 11:22:00,
2013-02-13 04:24:00,27.4,8.7,29.75,NNW,338,1.1,2.5,45,0.00,,,0.00,WUHU216HW,2013-02-13 11:24:00,
2013-02-13 04:25:00,27.2,8.6,29.75,WNW,293,1.1,2.5,45,0.00,,,0.00,WUHU216HW,2013-02-13 11:25:00,
2013-02-13 04:27:00,27.2,8.6,29.75,NW,315,0.0,2.5,45,0.00,,,0.00,WUHU216HW,2013-02-13 11:27:00,
2013-02-13 04:29:00,27.2,8.6,29.75,NW,315,0.9,2.5,45,0.00,,,0.00,WUHU216HW,2013-02-13 11:29:00,
2013-02-13 04:30:00,27.2,8.6,29.75,North,0,1.1,2.5,45,0.00,,,0.00,WUHU216HW,2013-02-13 11:30:00,
2013-02-13 04:32:00,27.2,8.6,29.75,NW,315,0.2,2.5,45,0.00,,,0.00,WUHU216HW,2013-02-13 11:32:00,
2013-02-13 04:34:00,27.2,8.6,29.75,WNW,293,1.1,1.6,45,0.00,,,0.00,WUHU216HW,2013-02-13 11:34:00,
2013-02-13 04:35:00,27.2,8.6,29.75,West,270,1.3,1.6,45,0.00,,,0.00,WUHU216HW,2013-02-13 11:35:00,
2013-02-13 04:37:00,27.2,8.6,29.75,West,270,2.0,2.0,45,0.00,,,0.00,WUHU216HW,2013-02-13 11:37:00,
2013-02-13 04:40:00,27.2,8.6,29.75,NNW,338,1.8,2.0,45,0.00,,,0.00,WUHU216HW,2013-02-13 11:40:00,
2013-02-13 04:42:00,27.2,8.6,29.75,NNW,338,0.2,2.0,45,0.00,,,0.00,WUHU216HW,2013-02-13 11:42:00,
2013-02-13 04:45:00,27.0,8.4,29.75,NW,315,0.4,2.0,45,0.00,,,0.00,WUHU216HW,2013-02-13 11:45:00,
2013-02-13 04:47:00,27.0,8.4,29.75,NNW,338,0.2,1.8,45,0.00,,,0.00,WUHU216HW,2013-02-13 11:47:00,
2013-02-13 04:50:00,27.0,8.4,29.75,NNW,338,0.4,1.3,45,0.00,,,0.00,WUHU216HW,2013-02-13 11:50:00,
2013-02-13 04:52:00,27.0,8.4,29.75,NW,315,0.2,1.3,45,0.00,,,0.00,WUHU216HW,2013-02-13 11:52:00,
2013-02-13 04:55:00,26.8,8.2,29.75,WNW,293,1.6,1.6,45,0.00,,,0.00,WUHU216HW,2013-02-13 11:55:00,
2013-02-13 04:57:00,26.8,8.2,29.75,NW,315,0.2,1.6,45,0.00,,,0.00,WUHU216HW,2013-02-13 11:57:00,
2013-02-13 05:00:00,26.6,8.0,29.75,WNW,293,0.4,1.6,45,0.00,,,0.00,WUHU216HW,2013-02-13 12:00:00,
2013-02-13 05:02:00,26.6,8.0,29.75,West,270,1.6,1.6,45,0.00,,,0.00,WUHU216HW,2013-02-13 12:02:00,
2013-02-13 05:05:00,26.6,8.5,29.75,West,270,1.3,1.8,46,0.00,,,0.00,WUHU216HW,2013-02-13 12:05:00,
2013-02-13 05:06:00,26.6,8.5,29.75,West,270,1.3,1.8,46,0.00,,,0.00,WUHU216HW,2013-02-13 12:06:00,
2013-02-13 05:08:00,26.6,8.5,29.75,WNW,293,1.6,1.8,46,0.00,,,0.00,WUHU216HW,2013-02-13 12:08:00,
2013-02-13 05:10:00,26.6,8.5,29.75,NW,315,1.1,1.8,46,0.00,,,0.00,WUHU216HW,2013-02-13 12:10:00,
2013-02-13 05:11:00,26.6,8.5,29.75,NW,315,1.1,1.8,46,0.00,,,0.00,WUHU216HW,2013-02-13 12:11:00,
2013-02-13 05:13:00,26.6,8.5,29.75,NW,315,0.4,1.8,46,0.00,,,0.00,WUHU216HW,2013-02-13 12:13:00,
2013-02-13 05:16:00,26.6,8.5,29.75,WNW,293,0.9,1.6,46,0.00,,,0.00,WUHU216HW,2013-02-13 12:16:00,
2013-02-13 05:18:00,26.6,8.5,29.75,NW,315,0.2,1.6,46,0.00,,,0.00,WUHU216HW,2013-02-13 12:18:00,
2013-02-13 05:21:00,26.6,8.5,29.75,NNW,338,0.2,1.6,46,0.00,,,0.00,WUHU216HW,2013-02-13 12:21:00,
2013-02-13 05:23:00,26.6,8.5,29.75,NNW,338,0.0,1.6,46,0.00,,,0.00,WUHU216HW,2013-02-13 12:23:00,
2013-02-13 05:26:00,26.5,8.4,29.75,NNW,338,0.0,0.9,46,0.00,,,0.00,WUHU216HW,2013-02-13 12:26:00,
2013-02-13 05:29:00,26.5,8.4,29.75,WNW,293,0.7,1.3,46,0.00,,,0.00,WUHU216HW,2013-02-13 12:29:00,
2013-02-13 05:31:00,26.5,8.4,29.75,WNW,293,1.3,1.3,46,0.00,,,0.00,WUHU216HW,2013-02-13 12:31:00,
2013-02-13 05:34:00,26.3,8.2,29.75,West,270,2.0,2.0,46,0.00,,,0.00,WUHU216HW,2013-02-13 12:34:00,
2013-02-13 05:36:00,26.3,8.2,29.75,West,270,0.9,2.0,46,0.00,,,0.00,WUHU216HW,2013-02-13 12:36:00,
2013-02-13 05:37:00,26.3,8.2,29.75,West,270,1.1,2.0,46,0.00,,,0.00,WUHU216HW,2013-02-13 12:37:00,
2013-02-13 05:39:00,26.3,8.2,29.75,West,270,1.8,2.0,46,0.00,,,0.00,WUHU216HW,2013-02-13 12:39:00,
2013-02-13 05:41:00,26.3,8.2,29.75,NW,315,1.8,2.0,46,0.00,,,0.00,WUHU216HW,2013-02-13 12:41:00,
2013-02-13 05:42:00,26.3,8.2,29.75,West,270,0.4,2.0,46,0.00,,,0.00,WUHU216HW,2013-02-13 12:42:00,
2013-02-13 05:44:00,26.1,8.0,29.75,WSW,248,1.1,2.0,46,0.00,,,0.00,WUHU216HW,2013-02-13 12:44:00,
2013-02-13 05:46:00,26.1,8.0,29.75,SW,225,2.5,2.5,46,0.00,,,0.00,WUHU216HW,2013-02-13 12:46:00,
2013-02-13 05:47:00,26.1,8.0,29.75,WSW,248,2.0,2.5,46,0.00,,,0.00,WUHU216HW,2013-02-13 12:47:00,
2013-02-13 05:49:00,26.1,8.0,29.75,SW,225,1.1,2.5,46,0.00,,,0.00,WUHU216HW,2013-02-13 12:49:00,
2013-02-13 05:51:00,25.9,7.8,29.75,SW,225,0.0,2.5,46,0.00,,,0.00,WUHU216HW,2013-02-13 12:51:00,
2013-02-13 05:52:00,25.9,7.8,29.75,SW,225,0.0,2.5,46,0.00,,,0.00,WUHU216HW,2013-02-13 12:52:00,
2013-02-13 05:53:00,25.9,7.8,29.76,West,270,1.3,2.5,46,0.00,,,0.00,WUHU216HW,2013-02-13 12:53:00,
2013-02-13 05:54:00,25.9,7.8,29.76,West,270,0.4,2.5,46,0.00,,,0.00,WUHU216HW,2013-02-13 12:54:00,
2013-02-13 05:56:00,25.9,7.8,29.75,West,270,0.0,1.6,46,0.00,,,0.00,WUHU216HW,2013-02-13 12:56:00,
2013-02-13 05:57:00,25.7,7.7,29.75,NNW,338,0.4,1.6,46,0.00,,,0.00,WUHU216HW,2013-02-13 12:57:00,
2013-02-13 05:58:00,25.7,7.7,29.75,NNW,338,0.0,1.3,46,0.00,,,0.00,WUHU216HW,2013-02-13 12:58:00,
2013-02-13 06:00:00,25.7,7.7,29.76,NW,315,0.2,1.3,46,0.00,,,0.00,WUHU216HW,2013-02-13 13:00:00,
2013-02-13 06:02:00,25.7,7.7,29.76,WNW,293,1.1,1.3,46,0.00,,,0.00,WUHU216HW,2013-02-13 13:02:00,
2013-02-13 06:03:00,25.7,7.7,29.76,NW,315,1.1,1.8,46,0.00,,,0.00,WUHU216HW,2013-02-13 13:03:00,
2013-02-13 06:05:00,25.6,7.6,29.76,WNW,293,1.8,1.8,46,0.00,,,0.00,WUHU216HW,2013-02-13 13:05:00,
2013-02-13 06:07:00,25.6,7.6,29.76,West,270,1.8,1.8,46,0.00,,,0.00,WUHU216HW,2013-02-13 13:07:00,
2013-02-13 06:08:00,25.6,7.6,29.76,West,270,2.0,2.0,46,0.00,,,0.00,WUHU216HW,2013-02-13 13:08:00,
2013-02-13 06:10:00,25.6,8.0,29.76,West,270,0.9,2.7,47,0.00,,,0.00,WUHU216HW,2013-02-13 13:10:00,
2013-02-13 06:12:00,25.6,8.0,29.76,WNW,293,1.1,2.7,47,0.00,,,0.00,WUHU216HW,2013-02-13 13:12:00,
2013-02-13 06:13:00,25.6,8.0,29.76,West,270,0.4,2.7,47,0.00,,,0.00,WUHU216HW,2013-02-13 13:13:00,
2013-02-13 06:15:00,25.6,8.0,29.76,WNW,293,0.9,2.7,47,0.00,,,0.00,WUHU216HW,2013-02-13 13:15:00,
2013-02-13 06:17:00,25.6,8.0,29.76,WSW,248,2.5,2.7,47,0.00,,,0.00,WUHU216HW,2013-02-13 13:17:00,
2013-02-13 06:18:00,25.6,8.0,29.76,WSW,248,2.7,3.1,47,0.00,,,0.00,WUHU216HW,2013-02-13 13:18:00,
2013-02-13 06:21:00,25.4,7.8,29.76,West,270,1.1,3.1,47,0.00,,,0.00,WUHU216HW,2013-02-13 13:21:00,
2013-02-13 06:22:00,25.4,7.8,29.76,WNW,293,0.7,3.1,47,0.00,,,0.00,WUHU216HW,2013-02-13 13:22:00,
2013-02-13 06:23:00,25.4,7.8,29.76,WSW,248,0.4,3.1,47,0.00,,,0.00,WUHU216HW,2013-02-13 13:23:00,
2013-02-13 06:26:00,25.4,7.8,29.76,West,270,2.5,3.1,47,0.00,,,0.00,WUHU216HW,2013-02-13 13:26:00,
2013-02-13 06:27:00,25.4,7.8,29.76,West,270,2.9,2.9,47,0.00,,,0.00,WUHU216HW,2013-02-13 13:27:00,
2013-02-13 06:28:00,25.4,7.8,29.76,West,270,2.5,2.9,47,0.00,,,0.00,WUHU216HW,2013-02-13 13:28:00,
2013-02-13 06:29:00,25.2,7.7,29.76,West,270,2.0,2.9,47,0.00,,,0.00,WUHU216HW,2013-02-13 13:29:00,
2013-02-13 06:31:00,25.2,7.7,29.76,West,270,1.8,2.9,47,0.00,,,0.00,WUHU216HW,2013-02-13 13:31:00,
2013-02-13 06:32:00,25.2,7.7,29.76,West,270,1.8,2.9,47,0.00,,,0.00,WUHU216HW,2013-02-13 13:32:00,
2013-02-13 06:33:00,25.2,7.7,29.76,West,270,2.0,2.9,47,0.00,,,0.00,WUHU216HW,2013-02-13 13:33:00,
2013-02-13 06:34:00,25.2,7.7,29.76,WNW,293,2.0,2.9,47,0.00,,,0.00,WUHU216HW,2013-02-13 13:34:00,
2013-02-13 06:36:00,25.2,7.7,29.76,WNW,293,2.5,2.9,47,0.00,,,0.00,WUHU216HW,2013-02-13 13:36:00,
2013-02-13 06:37:00,25.2,7.7,29.76,WNW,293,2.7,2.7,47,0.00,,,0.00,WUHU216HW,2013-02-13 13:37:00,
2013-02-13 06:38:00,25.2,7.7,29.76,WNW,293,1.8,2.7,47,0.00,,,0.00,WUHU216HW,2013-02-13 13:38:00,
2013-02-13 06:39:00,25.4,7.8,29.76,WNW,293,2.5,2.7,47,0.00,,,0.00,WUHU216HW,2013-02-13 13:39:00,
2013-02-13 06:41:00,25.2,7.7,29.76,NW,315,2.5,2.7,47,0.00,,,0.00,WUHU216HW,2013-02-13 13:41:00,
2013-02-13 06:43:00,25.2,7.7,29.76,West,270,1.3,2.7,47,0.00,,,0.00,WUHU216HW,2013-02-13 13:43:00,
2013-02-13 06:44:00,25.2,7.7,29.76,West,270,1.8,2.7,47,0.00,,,0.00,WUHU216HW,2013-02-13 13:44:00,
2013-02-13 06:46:00,25.4,7.8,29.76,West,270,1.3,2.7,47,0.00,,,0.00,WUHU216HW,2013-02-13 13:46:00,
2013-02-13 06:48:00,25.4,7.8,29.76,West,270,1.8,2.5,47,0.00,,,0.00,WUHU216HW,2013-02-13 13:48:00,
2013-02-13 06:49:00,25.4,7.8,29.76,West,270,1.6,2.5,47,0.00,,,0.00,WUHU216HW,2013-02-13 13:49:00,
2013-02-13 06:51:00,25.4,7.8,29.76,West,270,2.0,2.5,47,0.00,,,0.00,WUHU216HW,2013-02-13 13:51:00,
2013-02-13 06:53:00,25.4,7.8,29.76,West,270,2.5,2.5,47,0.00,,,0.00,WUHU216HW,2013-02-13 13:53:00,
2013-02-13 06:54:00,25.4,7.8,29.76,WSW,248,0.2,2.5,47,0.00,,,0.00,WUHU216HW,2013-02-13 13:54:00,
2013-02-13 06:56:00,25.2,7.7,29.76,East,90,0.7,2.5,47,0.00,,,0.00,WUHU216HW,2013-02-13 13:56:00,
2013-02-13 06:58:00,25.2,7.7,29.76,ESE,113,0.0,2.5,47,0.00,,,0.00,WUHU216HW,2013-02-13 13:58:00,
2013-02-13 06:59:00,25.2,7.7,29.76,ESE,113,0.0,2.5,47,0.00,,,0.00,WUHU216HW,2013-02-13 13:59:00,
2013-02-13 07:01:00,25.0,7.6,29.76,ESE,113,0.0,2.5,47,0.00,,,0.00,WUHU216HW,2013-02-13 14:01:00,
2013-02-13 07:03:00,24.8,7.4,29.76,ESE,113,0.0,0.7,47,0.00,,,0.00,WUHU216HW,2013-02-13 14:03:00,
2013-02-13 07:04:00,24.8,7.4,29.76,SE,135,0.4,0.7,47,0.00,,,0.00,WUHU216HW,2013-02-13 14:04:00,
2013-02-13 07:06:00,24.8,7.4,29.76,SSE,158,1.8,1.8,47,0.00,,,0.00,WUHU216HW,2013-02-13 14:06:00,
2013-02-13 07:08:00,24.8,7.4,29.76,SE,135,0.4,1.8,47,0.00,,,0.00,WUHU216HW,2013-02-13 14:08:00,
2013-02-13 07:10:00,24.7,7.2,29.76,SE,135,1.1,1.8,47,0.00,,,0.00,WUHU216HW,2013-02-13 14:10:00,
2013-02-13 07:11:00,24.5,7.0,29.76,NNW,338,0.0,1.8,47,0.00,,,0.00,WUHU216HW,2013-02-13 14:11:00,
2013-02-13 07:13:00,24.3,6.4,29.76,NNW,338,0.0,1.8,46,0.00,,,0.00,WUHU216HW,2013-02-13 14:13:00,
2013-02-13 07:15:00,24.3,6.4,29.76,SE,135,0.0,1.8,46,0.00,,,0.00,WUHU216HW,2013-02-13 14:15:00,
2013-02-13 07:17:00,24.3,6.8,29.76,NE,45,0.0,1.1,47,0.00,,,0.00,WUHU216HW,2013-02-13 14:17:00,
2013-02-13 07:18:00,24.3,6.8,29.76,NE,45,0.0,1.1,47,0.00,,,0.00,WUHU216HW,2013-02-13 14:18:00,
2013-02-13 07:20:00,24.7,7.7,29.76,NE,45,0.0,1.1,48,0.00,,,0.00,WUHU216HW,2013-02-13 14:20:00,
2013-02-13 07:22:00,24.8,7.8,29.76,ENE,68,1.1,1.8,48,0.00,,,0.00,WUHU216HW,2013-02-13 14:22:00,
2013-02-13 07:23:00,25.2,8.2,29.76,ENE,68,0.0,1.8,48,0.00,,,0.00,WUHU216HW,2013-02-13 14:23:00,
2013-02-13 07:25:00,25.4,8.4,29.76,ENE,68,0.0,1.8,48,0.00,,,0.00,WUHU216HW,2013-02-13 14:25:00,
2013-02-13 07:27:00,25.7,8.6,29.76,ENE,68,0.0,1.8,48,0.00,,,0.00,WUHU216HW,2013-02-13 14:27:00,
2013-02-13 07:28:00,25.9,8.8,29.76,WSW,248,1.6,1.8,48,0.00,,,0.00,WUHU216HW,2013-02-13 14:28:00,
2013-02-13 07:30:00,26.3,9.2,29.76,SSW,203,1.3,1.8,48,0.00,,,0.00,WUHU216HW,2013-02-13 14:30:00,
2013-02-13 07:33:00,26.6,9.5,29.76,WSW,248,2.5,2.5,48,0.00,,,0.00,WUHU216HW,2013-02-13 14:33:00,
2013-02-13 07:34:00,27.0,9.8,29.77,WSW,248,1.3,2.5,48,0.00,,,0.00,WUHU216HW,2013-02-13 14:34:00,
2013-02-13 07:35:00,27.4,10.2,29.77,SSE,158,0.4,2.5,48,0.00,,,0.00,WUHU216HW,2013-02-13 14:35:00,
2013-02-13 07:38:00,27.9,10.7,29.77,SE,135,0.0,2.5,48,0.00,,,0.00,WUHU216HW,2013-02-13 14:38:00,
2013-02-13 07:39:00,28.1,10.9,29.77,SE,135,0.7,2.5,48,0.00,,,0.00,WUHU216HW,2013-02-13 14:39:00,
2013-02-13 07:40:00,28.4,11.3,29.77,East,90,0.2,2.5,48,0.00,,,0.00,WUHU216HW,2013-02-13 14:40:00,
2013-02-13 07:43:00,28.6,11.4,29.77,East,90,0.0,1.3,48,0.00,,,0.00,WUHU216HW,2013-02-13 14:43:00,
2013-02-13 07:44:00,28.8,11.1,29.77,East,90,0.0,1.1,47,0.00,,,0.00,WUHU216HW,2013-02-13 14:44:00,
2013-02-13 07:46:00,29.0,11.3,29.77,SW,225,0.0,0.7,47,0.00,,,0.00,WUHU216HW,2013-02-13 14:46:00,
2013-02-13 07:48:00,29.3,11.5,29.77,West,270,1.8,1.8,47,0.00,,,0.00,WUHU216HW,2013-02-13 14:48:00,
2013-02-13 07:49:00,29.5,11.7,29.77,North,0,4.0,4.0,47,0.00,,,0.00,WUHU216HW,2013-02-13 14:49:00,
2013-02-13 07:51:00,29.9,12.1,29.77,NNW,338,1.8,4.0,47,0.00,,,0.00,WUHU216HW,2013-02-13 14:51:00,
2013-02-13 07:53:00,30.2,11.9,29.77,NNW,338,0.2,4.0,46,0.00,,,0.00,WUHU216HW,2013-02-13 14:53:00,
2013-02-13 07:54:00,30.2,11.9,29.77,North,0,0.0,4.0,46,0.00,,,0.00,WUHU216HW,2013-02-13 14:54:00,
2013-02-13 07:56:00,30.6,12.2,29.77,North,0,0.0,4.0,46,0.00,,,0.00,WUHU216HW,2013-02-13 14:56:00,
2013-02-13 07:58:00,31.1,12.7,29.77,NNW,338,0.4,4.0,46,0.00,,,0.00,WUHU216HW,2013-02-13 14:58:00,
2013-02-13 07:59:00,31.5,13.0,29.77,WNW,293,0.2,1.8,46,0.00,,,0.00,WUHU216HW,2013-02-13 14:59:00,
2013-02-13 08:00:00,31.5,13.0,29.77,WNW,293,0.2,1.8,46,0.00,,,0.00,WUHU216HW,2013-02-13 15:00:00,
2013-02-13 08:01:00,32.0,13.0,29.77,WNW,293,0.9,1.3,45,0.00,,,0.00,WUHU216HW,2013-02-13 15:01:00,
2013-02-13 08:03:00,32.8,13.6,29.77,West,270,0.0,1.3,45,0.00,,,0.00,WUHU216HW,2013-02-13 15:03:00,
2013-02-13 08:04:00,32.8,13.6,29.77,SSE,158,1.1,1.3,45,0.00,,,0.00,WUHU216HW,2013-02-13 15:04:00,
2013-02-13 08:05:00,32.8,13.6,29.77,SSE,158,1.1,1.3,45,0.00,,,0.00,WUHU216HW,2013-02-13 15:05:00,
2013-02-13 08:06:00,33.1,13.4,29.77,SE,135,0.9,1.3,44,0.00,,,0.00,WUHU216HW,2013-02-13 15:06:00,
2013-02-13 08:09:00,33.7,14.0,29.77,SE,135,0.0,1.3,44,0.00,,,0.00,WUHU216HW,2013-02-13 15:09:00,
2013-02-13 08:10:00,33.8,14.0,29.77,SE,135,0.7,1.1,44,0.00,,,0.00,WUHU216HW,2013-02-13 15:10:00,
2013-02-13 08:11:00,34.2,14.0,29.77,SE,135,0.0,1.1,43,0.00,,,0.00,WUHU216HW,2013-02-13 15:11:00,
2013-02-13 08:14:00,34.4,14.0,29.77,ENE,68,0.2,1.1,43,0.00,,,0.00,WUHU216HW,2013-02-13 15:14:00,
2013-02-13 08:15:00,34.4,14.0,29.77,ENE,68,0.0,1.1,43,0.00,,,0.00,WUHU216HW,2013-02-13 15:15:00,
2013-02-13 08:17:00,34.7,13.9,29.77,East,90,0.2,0.7,42,0.00,,,0.00,WUHU216HW,2013-02-13 15:17:00,
2013-02-13 08:19:00,34.9,14.0,29.77,ENE,68,0.0,0.7,42,0.00,,,0.00,WUHU216HW,2013-02-13 15:19:00,
2013-02-13 08:20:00,34.9,14.0,29.77,ENE,68,0.0,0.7,42,0.00,,,0.00,WUHU216HW,2013-02-13 15:20:00,
2013-02-13 08:22:00,35.1,14.2,29.77,ENE,68,0.7,0.9,42,0.00,,,0.00,WUHU216HW,2013-02-13 15:22:00,
2013-02-13 08:24:00,35.3,13.9,29.77,NE,45,1.8,1.8,41,0.00,,,0.00,WUHU216HW,2013-02-13 15:24:00,
2013-02-13 08:25:00,35.3,13.9,29.77,NE,45,1.8,1.8,41,0.00,,,0.00,WUHU216HW,2013-02-13 15:25:00,
2013-02-13 08:27:00,35.5,14.1,29.77,North,0,1.1,1.8,41,0.00,,,0.00,WUHU216HW,2013-02-13 15:27:00,
2013-02-13 08:29:00,35.8,14.9,29.77,NNE,23,1.8,1.8,42,0.00,,,0.00,WUHU216HW,2013-02-13 15:29:00,
2013-02-13 08:30:00,36.0,15.0,29.77,North,0,1.3,1.8,42,0.00,,,0.00,WUHU216HW,2013-02-13 15:30:00,
2013-02-13 08:32:00,36.4,15.4,29.77,North,0,1.1,1.8,42,0.00,,,0.00,WUHU216HW,2013-02-13 15:32:00,
2013-02-13 08:34:00,36.7,14.7,29.77,NE,45,1.6,3.4,40,0.00,,,0.00,WUHU216HW,2013-02-13 15:34:00,
2013-02-13 08:35:00,36.7,14.7,29.77,NE,45,1.6,3.4,40,0.00,,,0.00,WUHU216HW,2013-02-13 15:35:00,
2013-02-13 08:37:00,36.9,14.9,29.77,NE,45,4.3,4.3,40,0.00,,,0.00,WUHU216HW,2013-02-13 15:37:00,
2013-02-13 08:39:00,36.9,14.9,29.77,ENE,68,1.6,4.3,40,0.00,,,0.00,WUHU216HW,2013-02-13 15:39:00,
2013-02-13 08:40:00,36.9,14.9,29.77,ENE,68,1.6,4.3,40,0.00,,,0.00,WUHU216HW,2013-02-13 15:40:00,
2013-02-13 08:41:00,37.1,14.9,29.77,NE,45,4.3,4.3,40,0.00,,,0.00,WUHU216HW,2013-02-13 15:41:00,
2013-02-13 08:42:00,37.1,14.9,29.77,NNE,23,2.7,4.3,40,0.00,,,0.00,WUHU216HW,2013-02-13 15:42:00,
2013-02-13 08:45:00,37.1,14.3,29.77,ENE,68,5.1,5.1,39,0.00,,,0.00,WUHU216HW,2013-02-13 15:45:00,
2013-02-13 08:46:00,37.3,14.5,29.77,ENE,68,4.0,5.1,39,0.00,,,0.00,WUHU216HW,2013-02-13 15:46:00,
2013-02-13 08:47:00,37.1,14.3,29.77,ENE,68,3.1,5.1,39,0.00,,,0.00,WUHU216HW,2013-02-13 15:47:00,
2013-02-13 08:50:00,37.1,14.3,29.77,ENE,68,2.0,5.1,39,0.00,,,0.00,WUHU216HW,2013-02-13 15:50:00,
2013-02-13 08:51:00,37.1,14.3,29.77,ENE,68,3.4,5.1,39,0.00,,,0.00,WUHU216HW,2013-02-13 15:51:00,
2013-02-13 08:52:00,37.1,14.3,29.77,NNE,23,2.7,5.1,39,0.00,,,0.00,WUHU216HW,2013-02-13 15:52:00,
2013-02-13 08:55:00,37.1,14.3,29.77,North,0,3.6,4.7,39,0.00,,,0.00,WUHU216HW,2013-02-13 15:55:00,
2013-02-13 08:56:00,37.3,14.5,29.77,NNE,23,3.4,4.7,39,0.00,,,0.00,WUHU216HW,2013-02-13 15:56:00,
2013-02-13 08:57:00,37.3,14.5,29.77,NNE,23,3.4,4.7,39,0.00,,,0.00,WUHU216HW,2013-02-13 15:57:00,
2013-02-13 09:00:00,37.4,14.7,29.77,NNE,23,2.5,4.7,39,0.00,,,0.00,WUHU216HW,2013-02-13 16:00:00,
2013-02-13 09:01:00,37.6,14.9,29.77,NE,45,3.1,4.7,39,0.00,,,0.00,WUHU216HW,2013-02-13 16:01:00,
2013-02-13 09:02:00,37.8,14.9,29.77,NE,45,1.1,4.7,39,0.00,,,0.00,WUHU216HW,2013-02-13 16:02:00,
2013-02-13 09:05:00,38.2,15.3,29.77,NE,45,3.1,4.7,39,0.00,,,0.00,WUHU216HW,2013-02-13 16:05:00,
2013-02-13 09:06:00,38.2,15.3,29.77,ENE,68,3.8,3.8,39,0.00,,,0.00,WUHU216HW,2013-02-13 16:06:00,
2013-02-13 09:08:00,38.3,15.5,29.78,ENE,68,2.7,3.8,39,0.00,,,0.00,WUHU216HW,2013-02-13 16:08:00,
2013-02-13 09:10:00,38.5,15.7,29.78,NE,45,3.1,4.0,39,0.00,,,0.00,WUHU216HW,2013-02-13 16:10:00,
2013-02-13 09:11:00,38.7,15.8,29.77,ENE,68,0.7,4.0,39,0.00,,,0.00,WUHU216HW,2013-02-13 16:11:00,
2013-02-13 09:13:00,39.1,15.5,29.77,NE,45,4.0,4.9,38,0.00,,,0.00,WUHU216HW,2013-02-13 16:13:00,
2013-02-13 09:15:00,39.1,14.9,29.77,North,0,3.6,4.9,37,0.00,,,0.00,WUHU216HW,2013-02-13 16:15:00,
2013-02-13 09:16:00,39.2,14.9,29.77,East,90,2.5,4.9,37,0.00,,,0.00,WUHU216HW,2013-02-13 16:16:00,
2013-02-13 09:18:00,39.2,15.7,29.78,ENE,68,6.3,6.3,38,0.00,,,0.00,WUHU216HW,2013-02-13 16:18:00,
2013-02-13 09:20:00,39.4,15.8,29.77,NE,45,1.8,6.3,38,0.00,,,0.00,WUHU216HW,2013-02-13 16:20:00,
2013-02-13 09:21:00,39.6,15.9,29.77,NNE,23,4.0,6.3,38,0.00,,,0.00,WUHU216HW,2013-02-13 16:21:00,
2013-02-13 09:23:00,39.8,15.5,29.77,North,0,2.7,6.3,37,0.00,,,0.00,WUHU216HW,2013-02-13 16:23:00,
2013-02-13 09:25:00,40.5,16.1,29.77,NNE,23,6.7,6.7,37,0.00,,,0.00,WUHU216HW,2013-02-13 16:25:00,
2013-02-13 09:26:00,40.5,16.1,29.77,NNE,23,6.7,6.7,37,0.00,,,0.00,WUHU216HW,2013-02-13 16:26:00,
2013-02-13 09:28:00,40.7,15.7,29.78,North,0,4.9,8.5,36,0.00,,,0.00,WUHU216HW,2013-02-13 16:28:00,
2013-02-13 09:31:00,41.0,15.3,29.77,NNE,23,6.5,8.5,35,0.00,,,0.00,WUHU216HW,2013-02-13 16:31:00,
2013-02-13 09:32:00,41.2,15.5,29.77,NNE,23,6.5,8.5,35,0.00,,,0.00,WUHU216HW,2013-02-13 16:32:00,
2013-02-13 09:33:00,41.4,15.6,29.77,NNW,338,9.8,9.8,35,0.00,,,0.00,WUHU216HW,2013-02-13 16:33:00,
2013-02-13 09:36:00,41.8,14.0,29.77,North,0,9.2,10.1,32,0.00,,,0.00,WUHU216HW,2013-02-13 16:36:00,
2013-02-13 09:37:00,41.8,14.6,29.77,North,0,14.3,14.3,33,0.00,,,0.00,WUHU216HW,2013-02-13 16:37:00,
2013-02-13 09:38:00,41.8,14.0,29.77,NNW,338,5.6,14.3,32,0.00,,,0.00,WUHU216HW,2013-02-13 16:38:00,
2013-02-13 09:41:00,42.1,14.2,29.77,North,0,6.7,14.3,32,0.00,,,0.00,WUHU216HW,2013-02-13 16:41:00,
2013-02-13 09:42:00,42.1,14.2,29.77,NNE,23,7.4,14.3,32,0.00,,,0.00,WUHU216HW,2013-02-13 16:42:00,
2013-02-13 09:43:00,42.3,14.4,29.77,NW,315,6.0,14.3,32,0.00,,,0.00,WUHU216HW,2013-02-13 16:43:00,
2013-02-13 09:46:00,42.5,13.9,29.77,NNW,338,5.1,14.3,31,0.00,,,0.00,WUHU216HW,2013-02-13 16:46:00,
2013-02-13 09:47:00,42.7,14.1,29.77,North,0,5.4,13.2,31,0.00,,,0.00,WUHU216HW,2013-02-13 16:47:00,
2013-02-13 09:48:00,42.8,14.1,29.77,North,0,5.4,13.2,31,0.00,,,0.00,WUHU216HW,2013-02-13 16:48:00,
2013-02-13 09:51:00,43.2,13.9,29.77,NNE,23,10.5,10.5,30,0.00,,,0.00,WUHU216HW,2013-02-13 16:51:00,
2013-02-13 09:52:00,43.2,13.9,29.77,ENE,68,8.5,10.5,30,0.00,,,0.00,WUHU216HW,2013-02-13 16:52:00,
2013-02-13 09:53:00,43.2,13.0,29.77,NE,45,9.8,10.5,29,0.00,,,0.00,WUHU216HW,2013-02-13 16:53:00,
2013-02-13 09:56:00,43.2,14.5,29.77,NW,315,6.3,11.2,31,0.00,,,0.00,WUHU216HW,2013-02-13 16:56:00,
2013-02-13 09:57:00,43.2,14.5,29.77,West,270,6.3,11.2,31,0.00,,,0.00,WUHU216HW,2013-02-13 16:57:00,
2013-02-13 09:58:00,43.4,14.7,29.77,North,0,6.0,11.2,31,0.00,,,0.00,WUHU216HW,2013-02-13 16:58:00,
2013-02-13 10:01:00,43.9,15.1,29.77,NNW,338,5.6,11.2,31,0.00,,,0.00,WUHU216HW,2013-02-13 17:01:00,
2013-02-13 10:02:00,44.1,15.3,29.77,NNE,23,4.0,11.2,31,0.00,,,0.00,WUHU216HW,2013-02-13 17:02:00,
2013-02-13 10:03:00,44.3,15.5,29.77,North,0,6.9,11.2,31,0.00,,,0.00,WUHU216HW,2013-02-13 17:03:00,
2013-02-13 10:06:00,44.6,15.1,29.77,NNW,338,5.1,7.4,30,0.00,,,0.00,WUHU216HW,2013-02-13 17:06:00,
2013-02-13 10:07:00,44.6,15.1,29.77,NNE,23,6.7,7.4,30,0.00,,,0.00,WUHU216HW,2013-02-13 17:07:00,
2013-02-13 10:08:00,44.8,15.3,29.77,NW,315,10.5,10.5,30,0.00,,,0.00,WUHU216HW,2013-02-13 17:08:00,
2013-02-13 10:11:00,44.8,14.4,29.76,NW,315,6.3,10.5,29,0.00,,,0.00,WUHU216HW,2013-02-13 17:11:00,
2013-02-13 10:12:00,44.8,14.4,29.76,NNE,23,9.6,10.5,29,0.00,,,0.00,WUHU216HW,2013-02-13 17:12:00,
2013-02-13 10:13:00,44.8,14.4,29.76,NNW,338,8.9,10.5,29,0.00,,,0.00,WUHU216HW,2013-02-13 17:13:00,
2013-02-13 10:17:00,44.5,14.0,29.76,North,0,4.3,10.5,29,0.00,,,0.00,WUHU216HW,2013-02-13 17:17:00,
2013-02-13 10:19:00,44.6,14.2,29.76,North,0,13.2,13.2,29,0.00,,,0.00,WUHU216HW,2013-02-13 17:19:00,
2013-02-13 10:22:00,44.8,14.4,29.76,ENE,68,7.8,13.2,29,0.00,,,0.00,WUHU216HW,2013-02-13 17:22:00,
2013-02-13 10:24:00,44.8,14.4,29.76,North,0,7.8,13.2,29,0.00,,,0.00,WUHU216HW,2013-02-13 17:24:00,
2013-02-13 10:27:00,45.0,14.6,29.75,NNW,338,6.7,13.2,29,0.00,,,0.00,WUHU216HW,2013-02-13 17:27:00,
2013-02-13 10:28:00,45.2,14.7,29.75,NNE,23,4.9,13.2,29,0.00,,,0.00,WUHU216HW,2013-02-13 17:28:00,
2013-02-13 10:29:00,45.4,14.9,29.75,WNW,293,7.6,7.8,29,0.00,,,0.00,WUHU216HW,2013-02-13 17:29:00,
2013-02-13 10:32:00,45.7,15.2,29.75,NW,315,6.9,8.1,29,0.00,,,0.00,WUHU216HW,2013-02-13 17:32:00,
2013-02-13 10:33:00,45.9,15.3,29.75,North,0,13.0,13.0,29,0.00,,,0.00,WUHU216HW,2013-02-13 17:33:00,
2013-02-13 10:34:00,45.9,14.4,29.75,NNW,338,5.4,13.0,28,0.00,,,0.00,WUHU216HW,2013-02-13 17:34:00,
2013-02-13 10:37:00,46.1,14.6,29.75,NNE,23,7.8,13.0,28,0.00,,,0.00,WUHU216HW,2013-02-13 17:37:00,
2013-02-13 10:38:00,46.1,14.6,29.75,NNE,23,9.6,13.0,28,0.00,,,0.00,WUHU216HW,2013-02-13 17:38:00,
2013-02-13 10:39:00,46.1,14.6,29.75,NNW,338,4.3,13.0,28,0.00,,,0.00,WUHU216HW,2013-02-13 17:39:00,
2013-02-13 10:42:00,46.4,15.0,29.75,NNW,338,4.5,13.0,28,0.00,,,0.00,WUHU216HW,2013-02-13 17:42:00,
2013-02-13 10:43:00,46.6,15.0,29.75,NNW,338,2.5,9.6,28,0.00,,,0.00,WUHU216HW,2013-02-13 17:43:00,
2013-02-13 10:44:00,46.8,15.2,29.75,NW,315,4.3,9.6,28,0.00,,,0.00,WUHU216HW,2013-02-13 17:44:00,
2013-02-13 10:47:00,47.3,15.7,29.75,North,0,5.6,9.6,28,0.00,,,0.00,WUHU216HW,2013-02-13 17:47:00,
2013-02-13 10:48:00,47.3,15.7,29.75,North,0,4.5,6.7,28,0.00,,,0.00,WUHU216HW,2013-02-13 17:48:00,
2013-02-13 10:49:00,47.5,15.0,29.75,NW,315,6.0,6.7,27,0.00,,,0.00,WUHU216HW,2013-02-13 17:49:00,
2013-02-13 10:52:00,47.7,15.1,29.75,North,0,5.8,6.3,27,0.00,,,0.00,WUHU216HW,2013-02-13 17:52:00,
2013-02-13 10:53:00,47.7,15.1,29.75,NNW,338,0.9,6.3,27,0.00,,,0.00,WUHU216HW,2013-02-13 17:53:00,
2013-02-13 10:54:00,47.9,16.2,29.75,North,0,6.7,6.7,28,0.00,,,0.00,WUHU216HW,2013-02-13 17:54:00,
2013-02-13 10:57:00,48.1,14.5,29.75,WNW,293,5.6,11.6,26,0.00,,,0.00,WUHU216HW,2013-02-13 17:57:00,
2013-02-13 10:58:00,48.2,15.6,29.75,North,0,4.0,11.6,27,0.00,,,0.00,WUHU216HW,2013-02-13 17:58:00,
2013-02-13 10:59:00,48.2,15.6,29.75,NNW,338,4.7,11.6,27,0.00,,,0.00,WUHU216HW,2013-02-13 17:59:00,
2013-02-13 11:02:00,48.4,14.8,29.75,North,0,6.7,11.6,26,0.00,,,0.00,WUHU216HW,2013-02-13 18:02:00,
2013-02-13 11:04:00,48.6,14.0,29.75,NNW,338,3.1,11.6,25,0.00,,,0.00,WUHU216HW,2013-02-13 18:04:00,
2013-02-13 11:05:00,48.6,15.8,29.75,NW,315,4.0,11.6,27,0.00,,,0.00,WUHU216HW,2013-02-13 18:05:00,
2013-02-13 11:07:00,49.1,14.4,29.75,NNW,338,3.4,6.7,25,0.00,,,0.00,WUHU216HW,2013-02-13 18:07:00,
2013-02-13 11:09:00,49.1,14.4,29.74,North,0,9.4,9.4,25,0.00,,,0.00,WUHU216HW,2013-02-13 18:09:00,
2013-02-13 11:10:00,49.3,14.6,29.74,NNW,338,5.4,9.4,25,0.00,,,0.00,WUHU216HW,2013-02-13 18:10:00,
2013-02-13 11:12:00,49.0,14.3,29.74,NNW,338,9.4,9.4,25,0.00,,,0.00,WUHU216HW,2013-02-13 18:12:00,
2013-02-13 11:14:00,49.1,14.4,29.74,NNW,338,7.6,9.4,25,0.00,,,0.00,WUHU216HW,2013-02-13 18:14:00,
2013-02-13 11:15:00,49.0,13.3,29.74,NNW,338,9.2,9.4,24,0.00,,,0.00,WUHU216HW,2013-02-13 18:15:00,
2013-02-13 11:17:00,48.6,14.0,29.74,NNE,23,4.9,9.4,25,0.00,,,0.00,WUHU216HW,2013-02-13 18:17:00,
2013-02-13 11:19:00,48.6,14.0,29.74,NNW,338,7.6,9.4,25,0.00,,,0.00,WUHU216HW,2013-02-13 18:19:00,
2013-02-13 11:20:00,48.8,14.1,29.74,NW,315,4.3,9.4,25,0.00,,,0.00,WUHU216HW,2013-02-13 18:20:00,
2013-02-13 11:22:00,49.0,14.3,29.74,NW,315,5.1,9.2,25,0.00,,,0.00,WUHU216HW,2013-02-13 18:22:00,
2013-02-13 11:24:00,49.1,14.4,29.74,North,0,6.9,9.2,25,0.00,,,0.00,WUHU216HW,2013-02-13 18:24:00,
2013-02-13 11:25:00,49.1,13.5,29.74,NNW,338,9.6,9.6,24,0.00,,,0.00,WUHU216HW,2013-02-13 18:25:00,
2013-02-13 11:26:00,49.1,13.5,29.74,WSW,248,5.8,9.6,24,0.00,,,0.00,WUHU216HW,2013-02-13 18:26:00,
2013-02-13 11:28:00,49.1,14.4,29.74,NW,315,7.6,9.6,25,0.00,,,0.00,WUHU216HW,2013-02-13 18:28:00,
2013-02-13 11:29:00,49.1,14.4,29.74,North,0,7.8,9.6,25,0.00,,,0.00,WUHU216HW,2013-02-13 18:29:00,
2013-02-13 11:30:00,49.0,14.3,29.74,NNW,338,2.0,9.6,25,0.00,,,0.00,WUHU216HW,2013-02-13 18:30:00,
2013-02-13 11:31:00,49.0,14.3,29.74,NNW,338,2.0,9.6,25,0.00,,,0.00,WUHU216HW,2013-02-13 18:31:00,
2013-02-13 11:33:00,49.3,14.6,29.73,NNW,338,0.7,9.6,25,0.00,,,0.00,WUHU216HW,2013-02-13 18:33:00,
2013-02-13 11:34:00,49.5,14.8,29.73,NNW,338,2.9,9.6,25,0.00,,,0.00,WUHU216HW,2013-02-13 18:34:00,
2013-02-13 11:36:00,49.9,15.0,29.73,West,270,6.9,7.8,25,0.00,,,0.00,WUHU216HW,2013-02-13 18:36:00,
2013-02-13 11:38:00,50.0,15.2,29.73,NW,315,7.8,7.8,25,0.00,,,0.00,WUHU216HW,2013-02-13 18:38:00,
2013-02-13 11:39:00,50.4,15.5,29.73,NNE,23,5.8,7.8,25,0.00,,,0.00,WUHU216HW,2013-02-13 18:39:00,
2013-02-13 11:41:00,50.6,15.7,29.73,NNE,23,8.9,8.9,25,0.00,,,0.00,WUHU216HW,2013-02-13 18:41:00,
2013-02-13 11:43:00,50.8,15.0,29.73,NE,45,2.7,8.9,24,0.00,,,0.00,WUHU216HW,2013-02-13 18:43:00,
2013-02-13 11:44:00,50.8,15.0,29.73,WNW,293,3.4,8.9,24,0.00,,,0.00,WUHU216HW,2013-02-13 18:44:00,
2013-02-13 11:46:00,50.8,15.0,29.73,NW,315,3.8,8.9,24,0.00,,,0.00,WUHU216HW,2013-02-13 18:46:00,
2013-02-13 11:48:00,50.8,15.0,29.73,SSW,203,3.8,8.9,24,0.00,,,0.00,WUHU216HW,2013-02-13 18:48:00,
2013-02-13 11:49:00,50.8,15.9,29.72,WSW,248,4.7,8.9,25,0.00,,,0.00,WUHU216HW,2013-02-13 18:49:00,
2013-02-13 11:51:00,50.9,16.0,29.73,NNW,338,3.4,7.4,25,0.00,,,0.00,WUHU216HW,2013-02-13 18:51:00,
2013-02-13 11:54:00,51.1,15.2,29.72,NNW,338,2.7,6.3,24,0.00,,,0.00,WUHU216HW,2013-02-13 18:54:00,
2013-02-13 11:56:00,51.1,15.2,29.72,West,270,6.3,6.3,24,0.00,,,0.00,WUHU216HW,2013-02-13 18:56:00,
2013-02-13 11:59:00,51.1,15.2,29.72,WSW,248,2.0,7.8,24,0.00,,,0.00,WUHU216HW,2013-02-13 18:59:00,
2013-02-13 12:00:00,51.1,15.2,29.72,West,270,1.1,7.8,24,0.00,,,0.00,WUHU216HW,2013-02-13 19:00:00,
2013-02-13 12:01:00,51.1,15.2,29.72,NW,315,3.4,7.8,24,0.00,,,0.00,WUHU216HW,2013-02-13 19:01:00,
2013-02-13 12:04:00,51.5,15.5,29.72,North,0,4.5,7.8,24,0.00,,,0.00,WUHU216HW,2013-02-13 19:04:00,
2013-02-13 12:05:00,51.5,15.5,29.72,North,0,4.5,7.8,24,0.00,,,0.00,WUHU216HW,2013-02-13 19:05:00,
2013-02-13 12:06:00,51.3,15.4,29.72,NNW,338,3.6,7.8,24,0.00,,,0.00,WUHU216HW,2013-02-13 19:06:00,
2013-02-13 12:09:00,51.3,15.4,29.72,West,270,7.6,7.6,24,0.00,,,0.00,WUHU216HW,2013-02-13 19:09:00,
2013-02-13 12:10:00,51.3,15.4,29.72,West,270,7.6,7.6,24,0.00,,,0.00,WUHU216HW,2013-02-13 19:10:00,
2013-02-13 12:11:00,51.5,15.5,29.72,West,270,4.5,7.6,24,0.00,,,0.00,WUHU216HW,2013-02-13 19:11:00,
2013-02-13 12:12:00,51.5,15.5,29.72,West,270,4.5,7.6,24,0.00,,,0.00,WUHU216HW,2013-02-13 19:12:00,
2013-02-13 12:14:00,51.5,15.5,29.72,NNW,338,2.0,7.6,24,0.00,,,0.00,WUHU216HW,2013-02-13 19:14:00,
2013-02-13 12:15:00,51.5,15.5,29.72,NNW,338,2.0,7.6,24,0.00,,,0.00,WUHU216HW,2013-02-13 19:15:00,
2013-02-13 12:16:00,51.5,15.5,29.71,NW,315,2.5,7.6,24,0.00,,,0.00,WUHU216HW,2013-02-13 19:16:00,
2013-02-13 12:17:00,51.5,15.5,29.71,NW,315,2.5,7.6,24,0.00,,,0.00,WUHU216HW,2013-02-13 19:17:00,
2013-02-13 12:20:00,51.5,14.6,29.71,NNW,338,5.4,5.8,23,0.00,,,0.00,WUHU216HW,2013-02-13 19:20:00,
2013-02-13 12:21:00,51.3,14.4,29.71,NNW,338,5.1,6.3,23,0.00,,,0.00,WUHU216HW,2013-02-13 19:21:00,
2013-02-13 12:22:00,51.3,14.4,29.71,NNW,338,5.1,6.3,23,0.00,,,0.00,WUHU216HW,2013-02-13 19:22:00,
2013-02-13 12:25:00,50.8,15.0,29.71,NW,315,8.5,8.5,24,0.00,,,0.00,WUHU216HW,2013-02-13 19:25:00,
2013-02-13 12:27:00,50.8,14.0,29.71,NNW,338,9.6,9.8,23,0.00,,,0.00,WUHU216HW,2013-02-13 19:27:00,
2013-02-13 12:30:00,50.4,14.6,29.71,NW,315,7.6,9.8,24,0.00,,,0.00,WUHU216HW,2013-02-13 19:30:00,
2013-02-13 12:32:00,50.2,14.4,29.71,NNW,338,7.2,9.8,24,0.00,,,0.00,WUHU216HW,2013-02-13 19:32:00,
2013-02-13 12:35:00,50.2,14.4,29.70,NNW,338,8.1,9.6,24,0.00,,,0.00,WUHU216HW,2013-02-13 19:35:00,
2013-02-13 12:36:00,50.2,14.4,29.70,NNW,338,8.1,9.6,24,0.00,,,0.00,WUHU216HW,2013-02-13 19:36:00,
2013-02-13 12:37:00,50.2,14.4,29.71,NNW,338,6.3,8.3,24,0.00,,,0.00,WUHU216HW,2013-02-13 19:37:00,
2013-02-13 12:41:00,50.0,14.3,29.70,North,0,7.8,10.1,24,0.00,,,0.00,WUHU216HW,2013-02-13 19:41:00,
2013-02-13 12:42:00,50.0,14.3,29.70,North,0,4.5,10.1,24,0.00,,,0.00,WUHU216HW,2013-02-13 19:42:00,
2013-02-13 12:46:00,50.4,15.5,29.70,NNW,338,3.4,10.1,25,0.00,,,0.00,WUHU216HW,2013-02-13 19:46:00,
2013-02-13 12:47:00,50.4,15.5,29.70,North,0,5.4,7.8,25,0.00,,,0.00,WUHU216HW,2013-02-13 19:47:00,
2013-02-13 12:51:00,50.6,14.8,29.70,NNW,338,5.4,9.4,24,0.00,,,0.00,WUHU216HW,2013-02-13 19:51:00,
2013-02-13 12:52:00,50.6,14.8,29.70,North,0,5.1,9.4,24,0.00,,,0.00,WUHU216HW,2013-02-13 19:52:00,
2013-02-13 12:56:00,50.6,15.7,29.70,NNW,338,7.2,9.4,25,0.00,,,0.00,WUHU216HW,2013-02-13 19:56:00,
2013-02-13 12:57:00,50.8,15.0,29.70,North,0,8.1,9.4,24,0.00,,,0.00,WUHU216HW,2013-02-13 19:57:00,
2013-02-13 13:01:00,50.6,14.8,29.70,North,0,7.4,8.5,24,0.00,,,0.00,WUHU216HW,2013-02-13 20:01:00,
2013-02-13 13:02:00,50.6,14.8,29.69,NW,315,8.3,8.5,24,0.00,,,0.00,WUHU216HW,2013-02-13 20:02:00,
2013-02-13 13:03:00,50.6,14.8,29.69,NW,315,8.3,8.5,24,0.00,,,0.00,WUHU216HW,2013-02-13 20:03:00,
2013-02-13 13:06:00,50.4,15.5,29.69,North,0,3.4,8.5,25,0.00,,,0.00,WUHU216HW,2013-02-13 20:06:00,
2013-02-13 13:07:00,50.2,15.4,29.69,NNE,23,4.5,8.5,25,0.00,,,0.00,WUHU216HW,2013-02-13 20:07:00,
2013-02-13 13:08:00,50.2,15.4,29.69,NNE,23,4.5,8.5,25,0.00,,,0.00,WUHU216HW,2013-02-13 20:08:00,
2013-02-13 13:11:00,50.4,15.5,29.69,NW,315,6.9,8.5,25,0.00,,,0.00,WUHU216HW,2013-02-13 20:11:00,
2013-02-13 13:12:00,50.4,15.5,29.69,NW,315,6.9,8.5,25,0.00,,,0.00,WUHU216HW,2013-02-13 20:12:00,
2013-02-13 13:13:00,50.4,15.5,29.69,NNW,338,5.6,8.5,25,0.00,,,0.00,WUHU216HW,2013-02-13 20:13:00,
2013-02-13 13:17:00,50.8,15.9,29.68,WNW,293,4.7,8.5,25,0.00,,,0.00,WUHU216HW,2013-02-13 20:17:00,
2013-02-13 13:18:00,50.9,16.0,29.68,NNW,338,4.0,8.5,25,0.00,,,0.00,WUHU216HW,2013-02-13 20:18:00,
2013-02-13 13:22:00,51.1,16.1,29.68,NNW,338,7.4,8.5,25,0.00,,,0.00,WUHU216HW,2013-02-13 20:22:00,
2013-02-13 13:23:00,51.3,15.4,29.68,NE,45,3.6,8.5,24,0.00,,,0.00,WUHU216HW,2013-02-13 20:23:00,
2013-02-13 13:27:00,51.3,15.4,29.68,NW,315,10.3,10.3,24,0.00,,,0.00,WUHU216HW,2013-02-13 20:27:00,
2013-02-13 13:28:00,51.3,15.4,29.68,North,0,6.3,10.3,24,0.00,,,0.00,WUHU216HW,2013-02-13 20:28:00,
2013-02-13 13:32:00,50.9,15.0,29.68,North,0,7.6,10.3,24,0.00,,,0.00,WUHU216HW,2013-02-13 20:32:00,
2013-02-13 13:33:00,50.9,15.0,29.68,NNW,338,7.6,10.3,24,0.00,,,0.00,WUHU216HW,2013-02-13 20:33:00,
2013-02-13 13:34:00,50.8,15.0,29.68,NNE,23,5.4,10.3,24,0.00,,,0.00,WUHU216HW,2013-02-13 20:34:00,
2013-02-13 13:37:00,50.8,15.9,29.68,West,270,5.8,7.6,25,0.00,,,0.00,WUHU216HW,2013-02-13 20:37:00,
2013-02-13 13:38:00,50.8,15.9,29.67,NW,315,1.8,7.6,25,0.00,,,0.00,WUHU216HW,2013-02-13 20:38:00,
2013-02-13 13:39:00,50.8,15.9,29.67,NNW,338,5.4,7.6,25,0.00,,,0.00,WUHU216HW,2013-02-13 20:39:00,
2013-02-13 13:42:00,50.8,15.0,29.67,NNW,338,6.9,13.9,24,0.00,,,0.00,WUHU216HW,2013-02-13 20:42:00,
2013-02-13 13:43:00,50.8,15.0,29.67,NNE,23,8.5,13.9,24,0.00,,,0.00,WUHU216HW,2013-02-13 20:43:00,
2013-02-13 13:44:00,50.8,15.0,29.67,NW,315,9.4,13.9,24,0.00,,,0.00,WUHU216HW,2013-02-13 20:44:00,
2013-02-13 13:48:00,50.6,15.7,29.67,NNW,338,5.4,13.9,25,0.00,,,0.00,WUHU216HW,2013-02-13 20:48:00,
2013-02-13 13:49:00,50.6,15.7,29.67,North,0,4.7,13.9,25,0.00,,,0.00,WUHU216HW,2013-02-13 20:49:00,
2013-02-13 13:53:00,50.6,15.7,29.67,North,0,7.8,9.8,25,0.00,,,0.00,WUHU216HW,2013-02-13 20:53:00,
2013-02-13 13:54:00,50.8,15.9,29.67,NNW,338,4.0,9.8,25,0.00,,,0.00,WUHU216HW,2013-02-13 20:54:00,
2013-02-13 13:58:00,50.9,16.0,29.67,North,0,3.6,9.8,25,0.00,,,0.00,WUHU216HW,2013-02-13 20:58:00,
2013-02-13 13:59:00,50.9,16.0,29.67,NNE,23,5.8,9.8,25,0.00,,,0.00,WUHU216HW,2013-02-13 20:59:00,
2013-02-13 14:03:00,51.1,15.2,29.67,WSW,248,6.9,9.8,24,0.00,,,0.00,WUHU216HW,2013-02-13 21:03:00,
2013-02-13 14:04:00,51.1,16.1,29.67,NNW,338,4.0,9.8,25,0.00,,,0.00,WUHU216HW,2013-02-13 21:04:00,
2013-02-13 14:08:00,51.3,15.4,29.67,NW,315,4.7,11.9,24,0.00,,,0.00,WUHU216HW,2013-02-13 21:08:00,
2013-02-13 14:09:00,51.3,15.4,29.67,NNW,338,8.7,11.9,24,0.00,,,0.00,WUHU216HW,2013-02-13 21:09:00,
2013-02-13 14:13:00,50.9,15.0,29.67,NW,315,2.5,11.9,24,0.00,,,0.00,WUHU216HW,2013-02-13 21:13:00,
2013-02-13 14:14:00,50.9,15.0,29.67,NW,315,2.5,11.9,24,0.00,,,0.00,WUHU216HW,2013-02-13 21:14:00,
2013-02-13 14:18:00,50.9,15.0,29.66,NNE,23,6.9,8.7,24,0.00,,,0.00,WUHU216HW,2013-02-13 21:18:00,
2013-02-13 14:19:00,50.9,15.0,29.66,NNE,23,6.9,8.7,24,0.00,,,0.00,WUHU216HW,2013-02-13 21:19:00,
2013-02-13 14:20:00,50.9,15.0,29.66,NNW,338,8.5,8.5,24,0.00,,,0.00,WUHU216HW,2013-02-13 21:20:00,
2013-02-13 14:24:00,50.6,14.8,29.66,NNW,338,14.3,14.3,24,0.00,,,0.00,WUHU216HW,2013-02-13 21:24:00,
2013-02-13 14:25:00,50.4,14.6,29.66,NNE,23,7.4,14.3,24,0.00,,,0.00,WUHU216HW,2013-02-13 21:25:00,
2013-02-13 14:29:00,50.4,14.6,29.66,NNW,338,7.8,14.3,24,0.00,,,0.00,WUHU216HW,2013-02-13 21:29:00,
2013-02-13 14:30:00,50.4,14.6,29.66,NNW,338,4.9,14.3,24,0.00,,,0.00,WUHU216HW,2013-02-13 21:30:00,
2013-02-13 14:34:00,50.8,15.0,29.66,NNW,338,6.3,8.7,24,0.00,,,0.00,WUHU216HW,2013-02-13 21:34:00,
2013-02-13 14:35:00,50.8,15.9,29.66,North,0,6.3,8.7,25,0.00,,,0.00,WUHU216HW,2013-02-13 21:35:00,
2013-02-13 14:39:00,50.8,15.0,29.66,NNW,338,3.6,9.2,24,0.00,,,0.00,WUHU216HW,2013-02-13 21:39:00,
2013-02-13 14:40:00,50.8,15.9,29.66,West,270,2.2,9.2,25,0.00,,,0.00,WUHU216HW,2013-02-13 21:40:00,
2013-02-13 14:44:00,50.8,15.9,29.66,North,0,6.5,9.2,25,0.00,,,0.00,WUHU216HW,2013-02-13 21:44:00,
2013-02-13 14:45:00,50.8,15.9,29.66,North,0,6.5,9.2,25,0.00,,,0.00,WUHU216HW,2013-02-13 21:45:00,
2013-02-13 14:49:00,50.8,15.9,29.66,NNW,338,4.7,7.6,25,0.00,,,0.00,WUHU216HW,2013-02-13 21:49:00,
2013-02-13 14:50:00,50.8,15.9,29.66,NNW,338,4.7,7.6,25,0.00,,,0.00,WUHU216HW,2013-02-13 21:50:00,
2013-02-13 14:51:00,50.8,15.9,29.66,NW,315,7.6,7.6,25,0.00,,,0.00,WUHU216HW,2013-02-13 21:51:00,
2013-02-13 14:54:00,50.8,15.9,29.66,NNW,338,7.6,8.9,25,0.00,,,0.00,WUHU216HW,2013-02-13 21:54:00,
2013-02-13 14:55:00,50.8,15.9,29.66,NNW,338,7.6,8.9,25,0.00,,,0.00,WUHU216HW,2013-02-13 21:55:00,
2013-02-13 14:56:00,50.6,14.8,29.66,NNW,338,9.8,9.8,24,0.00,,,0.00,WUHU216HW,2013-02-13 21:56:00,
2013-02-13 15:00:00,50.6,15.7,29.66,West,270,6.3,9.8,25,0.00,,,0.00,WUHU216HW,2013-02-13 22:00:00,
2013-02-13 15:01:00,50.6,15.7,29.66,NNW,338,6.9,9.8,25,0.00,,,0.00,WUHU216HW,2013-02-13 22:01:00,
2013-02-13 15:05:00,50.6,15.7,29.66,NNW,338,6.3,9.8,25,0.00,,,0.00,WUHU216HW,2013-02-13 22:05:00,
2013-02-13 15:07:00,50.4,15.5,29.66,NNW,338,7.4,9.2,25,0.00,,,0.00,WUHU216HW,2013-02-13 22:07:00,
2013-02-13 15:10:00,50.4,15.5,29.65,North,0,8.3,10.1,25,0.00,,,0.00,WUHU216HW,2013-02-13 22:10:00,
2013-02-13 15:12:00,50.2,15.4,29.65,NW,315,6.0,10.1,25,0.00,,,0.00,WUHU216HW,2013-02-13 22:12:00,
2013-02-13 15:15:00,50.2,15.4,29.65,NNW,338,6.5,10.1,25,0.00,,,0.00,WUHU216HW,2013-02-13 22:15:00,
2013-02-13 15:17:00,50.0,15.2,29.66,NNW,338,2.0,10.1,25,0.00,,,0.00,WUHU216HW,2013-02-13 22:17:00,
2013-02-13 15:20:00,50.2,15.4,29.66,North,0,4.5,8.7,25,0.00,,,0.00,WUHU216HW,2013-02-13 22:20:00,
2013-02-13 15:22:00,50.2,15.4,29.66,North,0,4.0,8.7,25,0.00,,,0.00,WUHU216HW,2013-02-13 22:22:00,
2013-02-13 15:25:00,50.2,15.4,29.66,NNW,338,5.8,8.7,25,0.00,,,0.00,WUHU216HW,2013-02-13 22:25:00,
2013-02-13 15:27:00,50.0,15.2,29.66,NNW,338,12.3,12.3,25,0.00,,,0.00,WUHU216HW,2013-02-13 22:27:00,
2013-02-13 15:30:00,50.0,15.2,29.66,NNW,338,8.7,12.3,25,0.00,,,0.00,WUHU216HW,2013-02-13 22:30:00,
2013-02-13 15:31:00,50.0,15.2,29.66,NNE,23,6.9,12.3,25,0.00,,,0.00,WUHU216HW,2013-02-13 22:31:00,
2013-02-13 15:33:00,49.9,15.0,29.66,NNW,338,7.6,12.3,25,0.00,,,0.00,WUHU216HW,2013-02-13 22:33:00,
2013-02-13 15:35:00,49.7,15.0,29.66,WNW,293,4.5,12.3,25,0.00,,,0.00,WUHU216HW,2013-02-13 22:35:00,
2013-02-13 15:36:00,49.7,15.0,29.66,NNW,338,8.5,12.3,25,0.00,,,0.00,WUHU216HW,2013-02-13 22:36:00,
2013-02-13 15:38:00,49.5,14.8,29.66,North,0,12.5,12.5,25,0.00,,,0.00,WUHU216HW,2013-02-13 22:38:00,
2013-02-13 15:40:00,49.5,14.8,29.66,NW,315,8.5,12.5,25,0.00,,,0.00,WUHU216HW,2013-02-13 22:40:00,
2013-02-13 15:41:00,49.5,14.8,29.66,North,0,7.8,12.5,25,0.00,,,0.00,WUHU216HW,2013-02-13 22:41:00,
2013-02-13 15:43:00,49.3,14.6,29.66,NNW,338,10.3,12.5,25,0.00,,,0.00,WUHU216HW,2013-02-13 22:43:00,
2013-02-13 15:45:00,49.3,14.6,29.65,North,0,12.1,12.5,25,0.00,,,0.00,WUHU216HW,2013-02-13 22:45:00,
2013-02-13 15:46:00,49.3,14.6,29.65,NNW,338,10.5,12.5,25,0.00,,,0.00,WUHU216HW,2013-02-13 22:46:00,
2013-02-13 15:48:00,49.3,14.6,29.65,North,0,6.9,12.1,25,0.00,,,0.00,WUHU216HW,2013-02-13 22:48:00,
2013-02-13 15:50:00,49.3,15.5,29.65,NNW,338,7.4,12.1,26,0.00,,,0.00,WUHU216HW,2013-02-13 22:50:00,
2013-02-13 15:51:00,49.3,15.5,29.65,NNW,338,7.4,12.1,26,0.00,,,0.00,WUHU216HW,2013-02-13 22:51:00,
2013-02-13 15:53:00,49.3,15.5,29.65,North,0,7.8,12.1,26,0.00,,,0.00,WUHU216HW,2013-02-13 22:53:00,
2013-02-13 15:55:00,49.3,15.5,29.65,NNW,338,10.7,10.7,26,0.00,,,0.00,WUHU216HW,2013-02-13 22:55:00,
2013-02-13 15:56:00,49.3,15.5,29.65,NNW,338,10.7,10.7,26,0.00,,,0.00,WUHU216HW,2013-02-13 22:56:00,
2013-02-13 15:58:00,49.3,15.5,29.65,NW,315,9.2,10.7,26,0.00,,,0.00,WUHU216HW,2013-02-13 22:58:00,
2013-02-13 16:01:00,49.3,15.5,29.65,North,0,11.9,11.9,26,0.00,,,0.00,WUHU216HW,2013-02-13 23:01:00,
2013-02-13 16:02:00,49.3,15.5,29.65,NE,45,6.3,11.9,26,0.00,,,0.00,WUHU216HW,2013-02-13 23:02:00,
2013-02-13 16:03:00,49.3,15.5,29.65,NNW,338,8.5,11.9,26,0.00,,,0.00,WUHU216HW,2013-02-13 23:03:00,
2013-02-13 16:06:00,49.1,15.4,29.65,North,0,4.3,11.9,26,0.00,,,0.00,WUHU216HW,2013-02-13 23:06:00,
2013-02-13 16:07:00,49.1,15.4,29.65,North,0,4.3,11.9,26,0.00,,,0.00,WUHU216HW,2013-02-13 23:07:00,
2013-02-13 16:09:00,49.3,16.5,29.65,NNE,23,9.2,11.9,27,0.00,,,0.00,WUHU216HW,2013-02-13 23:09:00,
2013-02-13 16:11:00,49.1,16.3,29.65,WNW,293,6.7,9.4,27,0.00,,,0.00,WUHU216HW,2013-02-13 23:11:00,
2013-02-13 16:12:00,49.1,16.3,29.65,WNW,293,6.7,9.4,27,0.00,,,0.00,WUHU216HW,2013-02-13 23:12:00,
2013-02-13 16:14:00,49.3,16.5,29.65,NNW,338,7.6,9.4,27,0.00,,,0.00,WUHU216HW,2013-02-13 23:14:00,
2013-02-13 16:16:00,49.3,15.5,29.65,NNE,23,8.9,10.7,26,0.00,,,0.00,WUHU216HW,2013-02-13 23:16:00,
2013-02-13 16:17:00,49.3,15.5,29.65,NNE,23,8.9,10.7,26,0.00,,,0.00,WUHU216HW,2013-02-13 23:17:00,
2013-02-13 16:19:00,49.1,16.3,29.65,North,0,8.5,10.7,27,0.00,,,0.00,WUHU216HW,2013-02-13 23:19:00,
2013-02-13 16:21:00,49.0,16.1,29.65,NW,315,3.6,10.7,27,0.00,,,0.00,WUHU216HW,2013-02-13 23:21:00,
2013-02-13 16:22:00,49.0,16.1,29.65,NW,315,7.8,10.7,27,0.00,,,0.00,WUHU216HW,2013-02-13 23:22:00,
2013-02-13 16:24:00,49.0,16.1,29.65,NNW,338,7.6,10.7,27,0.00,,,0.00,WUHU216HW,2013-02-13 23:24:00,
2013-02-13 16:26:00,48.8,16.0,29.65,North,0,7.8,10.3,27,0.00,,,0.00,WUHU216HW,2013-02-13 23:26:00,
2013-02-13 16:27:00,48.8,16.0,29.65,NNE,23,6.0,10.3,27,0.00,,,0.00,WUHU216HW,2013-02-13 23:27:00,
2013-02-13 16:29:00,48.8,16.0,29.65,NNW,338,7.6,10.3,27,0.00,,,0.00,WUHU216HW,2013-02-13 23:29:00,
2013-02-13 16:31:00,48.8,16.0,29.65,North,0,6.7,9.4,27,0.00,,,0.00,WUHU216HW,2013-02-13 23:31:00,
2013-02-13 16:33:00,48.6,15.8,29.65,North,0,8.3,9.4,27,0.00,,,0.00,WUHU216HW,2013-02-13 23:33:00,
2013-02-13 16:34:00,48.6,15.8,29.65,NNW,338,8.9,9.4,27,0.00,,,0.00,WUHU216HW,2013-02-13 23:34:00,
2013-02-13 16:37:00,48.6,15.8,29.65,NW,315,3.8,8.9,27,0.00,,,0.00,WUHU216HW,2013-02-13 23:37:00,
2013-02-13 16:38:00,48.6,15.8,29.65,North,0,7.6,8.9,27,0.00,,,0.00,WUHU216HW,2013-02-13 23:38:00,
2013-02-13 16:40:00,48.6,15.8,29.65,NNW,338,4.3,8.9,27,0.00,,,0.00,WUHU216HW,2013-02-13 23:40:00,
2013-02-13 16:42:00,48.4,15.7,29.65,NNW,338,9.2,9.2,27,0.00,,,0.00,WUHU216HW,2013-02-13 23:42:00,
2013-02-13 16:43:00,48.4,15.7,29.65,NW,315,6.9,9.2,27,0.00,,,0.00,WUHU216HW,2013-02-13 23:43:00,
2013-02-13 16:45:00,48.4,15.7,29.65,NW,315,8.9,9.2,27,0.00,,,0.00,WUHU216HW,2013-02-13 23:45:00,
2013-02-13 16:47:00,48.4,15.7,29.65,NNW,338,6.5,9.2,27,0.00,,,0.00,WUHU216HW,2013-02-13 23:47:00,
2013-02-13 16:48:00,48.2,15.6,29.65,NNW,338,7.8,9.2,27,0.00,,,0.00,WUHU216HW,2013-02-13 23:48:00,
2013-02-13 16:50:00,48.2,15.6,29.65,North,0,7.6,12.5,27,0.00,,,0.00,WUHU216HW,2013-02-13 23:50:00,
2013-02-13 16:52:00,48.1,15.4,29.65,North,0,6.0,12.5,27,0.00,,,0.00,WUHU216HW,2013-02-13 23:52:00,
2013-02-13 16:53:00,48.2,15.6,29.65,North,0,7.4,12.5,27,0.00,,,0.00,WUHU216HW,2013-02-13 23:53:00,
2013-02-13 16:56:00,47.9,15.2,29.65,NNW,338,6.3,12.5,27,0.00,,,0.00,WUHU216HW,2013-02-13 23:56:00,
2013-02-13 16:57:00,47.9,15.2,29.65,NNE,23,8.9,12.5,27,0.00,,,0.00,WUHU216HW,2013-02-13 23:57:00,
2013-02-13 16:58:00,47.9,15.2,29.65,NNW,338,9.4,12.5,27,0.00,,,0.00,WUHU216HW,2013-02-13 23:58:00,
2013-02-13 17:01:00,47.7,15.1,29.65,NNW,338,6.3,9.4,27,0.00,,,0.00,WUHU216HW,2013-02-14 00:01:00,
2013-02-13 17:03:00,47.9,16.2,29.66,North,0,5.6,9.4,28,0.00,,,0.00,WUHU216HW,2013-02-14 00:03:00,
2013-02-13 17:06:00,47.7,16.0,29.65,North,0,6.3,9.4,28,0.00,,,0.00,WUHU216HW,2013-02-14 00:06:00,
2013-02-13 17:08:00,47.5,15.8,29.65,NNE,23,4.0,8.9,28,0.00,,,0.00,WUHU216HW,2013-02-14 00:08:00,
2013-02-13 17:11:00,47.5,15.8,29.66,NNE,23,2.2,7.2,28,0.00,,,0.00,WUHU216HW,2013-02-14 00:11:00,
2013-02-13 17:13:00,47.5,15.8,29.66,NNW,338,3.6,7.2,28,0.00,,,0.00,WUHU216HW,2013-02-14 00:13:00,
2013-02-13 17:16:00,47.5,15.8,29.66,NNW,338,4.3,5.4,28,0.00,,,0.00,WUHU216HW,2013-02-14 00:16:00,
2013-02-13 17:18:00,47.3,15.7,29.66,NW,315,4.3,5.4,28,0.00,,,0.00,WUHU216HW,2013-02-14 00:18:00,
2013-02-13 17:21:00,47.3,15.7,29.66,NNW,338,1.8,4.3,28,0.00,,,0.00,WUHU216HW,2013-02-14 00:21:00,
2013-02-13 17:23:00,47.2,15.6,29.66,NNE,23,5.1,5.1,28,0.00,,,0.00,WUHU216HW,2013-02-14 00:23:00,
2013-02-13 17:24:00,47.2,15.6,29.66,NNW,338,7.6,7.6,28,0.00,,,0.00,WUHU216HW,2013-02-14 00:24:00,
2013-02-13 17:26:00,47.2,15.6,29.66,North,0,4.7,7.6,28,0.00,,,0.00,WUHU216HW,2013-02-14 00:26:00,
2013-02-13 17:28:00,47.2,15.6,29.66,North,0,4.5,7.6,28,0.00,,,0.00,WUHU216HW,2013-02-14 00:28:00,
2013-02-13 17:29:00,47.0,15.4,29.66,North,0,4.9,7.6,28,0.00,,,0.00,WUHU216HW,2013-02-14 00:29:00,
2013-02-13 17:31:00,46.8,15.2,29.66,NNW,338,4.5,7.6,28,0.00,,,0.00,WUHU216HW,2013-02-14 00:31:00,
2013-02-13 17:33:00,46.8,15.2,29.66,NNW,338,5.6,7.6,28,0.00,,,0.00,WUHU216HW,2013-02-14 00:33:00,
2013-02-13 17:34:00,46.8,15.2,29.66,NW,315,3.4,7.6,28,0.00,,,0.00,WUHU216HW,2013-02-14 00:34:00,
2013-02-13 17:37:00,46.8,16.1,29.66,NNW,338,9.6,9.6,29,0.00,,,0.00,WUHU216HW,2013-02-14 00:37:00,
2013-02-13 17:38:00,46.8,16.1,29.66,NNW,338,4.7,9.6,29,0.00,,,0.00,WUHU216HW,2013-02-14 00:38:00,
2013-02-13 17:39:00,46.6,16.0,29.66,North,0,4.0,9.6,29,0.00,,,0.00,WUHU216HW,2013-02-14 00:39:00,
2013-02-13 17:42:00,46.4,15.9,29.66,North,0,6.9,9.6,29,0.00,,,0.00,WUHU216HW,2013-02-14 00:42:00,
2013-02-13 17:43:00,46.3,15.7,29.66,NNW,338,5.4,9.6,29,0.00,,,0.00,WUHU216HW,2013-02-14 00:43:00,
2013-02-13 17:44:00,46.3,15.7,29.66,NNW,338,5.4,9.6,29,0.00,,,0.00,WUHU216HW,2013-02-14 00:44:00,
2013-02-13 17:47:00,46.1,15.5,29.66,North,0,3.1,7.8,29,0.00,,,0.00,WUHU216HW,2013-02-14 00:47:00,
2013-02-13 17:48:00,46.1,15.5,29.66,North,0,7.6,7.8,29,0.00,,,0.00,WUHU216HW,2013-02-14 00:48:00,
2013-02-13 17:49:00,46.1,16.4,29.66,NNE,23,7.6,7.8,30,0.00,,,0.00,WUHU216HW,2013-02-14 00:49:00,
2013-02-13 17:53:00,45.7,16.1,29.67,North,0,4.9,9.2,30,0.00,,,0.00,WUHU216HW,2013-02-14 00:53:00,
2013-02-13 17:54:00,45.7,16.1,29.67,NNW,338,4.3,9.2,30,0.00,,,0.00,WUHU216HW,2013-02-14 00:54:00,
2013-02-13 17:55:00,45.7,16.1,29.67,NNW,338,4.0,9.2,30,0.00,,,0.00,WUHU216HW,2013-02-14 00:55:00,
2013-02-13 17:58:00,45.5,15.9,29.67,South,180,5.4,9.2,30,0.00,,,0.00,WUHU216HW,2013-02-14 00:58:00,
2013-02-13 17:59:00,45.5,15.9,29.67,North,0,4.3,9.2,30,0.00,,,0.00,WUHU216HW,2013-02-14 00:59:00,
2013-02-13 18:00:00,45.4,15.8,29.67,NNW,338,5.1,6.7,30,0.00,,,0.00,WUHU216HW,2013-02-14 01:00:00,
2013-02-13 18:03:00,45.2,16.3,29.67,NNW,338,5.4,8.1,31,0.00,,,0.00,WUHU216HW,2013-02-14 01:03:00,
2013-02-13 18:04:00,45.2,16.3,29.67,NNW,338,5.4,8.1,31,0.00,,,0.00,WUHU216HW,2013-02-14 01:04:00,
2013-02-13 18:05:00,45.2,16.3,29.68,NNW,338,7.2,8.1,31,0.00,,,0.00,WUHU216HW,2013-02-14 01:05:00,
2013-02-13 18:08:00,44.8,15.9,29.68,NNE,23,6.9,8.1,31,0.00,,,0.00,WUHU216HW,2013-02-14 01:08:00,
2013-02-13 18:09:00,44.8,15.9,29.68,NNE,23,6.9,8.1,31,0.00,,,0.00,WUHU216HW,2013-02-14 01:09:00,
2013-02-13 18:10:00,44.8,15.9,29.68,North,0,5.4,8.1,31,0.00,,,0.00,WUHU216HW,2013-02-14 01:10:00,
2013-02-13 18:13:00,44.6,15.8,29.68,NW,315,7.6,7.6,31,0.00,,,0.00,WUHU216HW,2013-02-14 01:13:00,
2013-02-13 18:14:00,44.6,15.8,29.68,NW,315,7.6,7.6,31,0.00,,,0.00,WUHU216HW,2013-02-14 01:14:00,
2013-02-13 18:15:00,44.6,15.8,29.68,North,0,6.5,7.6,31,0.00,,,0.00,WUHU216HW,2013-02-14 01:15:00,
2013-02-13 18:18:00,44.5,16.3,29.68,NW,315,8.7,8.7,32,0.00,,,0.00,WUHU216HW,2013-02-14 01:18:00,
2013-02-13 18:19:00,44.5,15.7,29.68,NNE,23,5.8,8.7,31,0.00,,,0.00,WUHU216HW,2013-02-14 01:19:00,
2013-02-13 18:20:00,44.5,15.7,29.68,NNE,23,5.8,8.7,31,0.00,,,0.00,WUHU216HW,2013-02-14 01:20:00,
2013-02-13 18:23:00,44.5,16.3,29.69,NW,315,4.7,8.9,32,0.00,,,0.00,WUHU216HW,2013-02-14 01:23:00,
2013-02-13 18:24:00,44.5,16.3,29.69,NNW,338,5.8,8.9,32,0.00,,,0.00,WUHU216HW,2013-02-14 01:24:00,
2013-02-13 18:25:00,44.5,16.3,29.69,NNW,338,5.8,8.9,32,0.00,,,0.00,WUHU216HW,2013-02-14 01:25:00,
2013-02-13 18:29:00,44.3,16.1,29.69,NNE,23,4.5,8.9,32,0.00,,,0.00,WUHU216HW,2013-02-14 01:29:00,
2013-02-13 18:30:00,44.3,16.1,29.69,North,0,6.7,8.9,32,0.00,,,0.00,WUHU216HW,2013-02-14 01:30:00,
2013-02-13 18:34:00,44.3,16.1,29.69,NNE,23,4.7,7.6,32,0.00,,,0.00,WUHU216HW,2013-02-14 01:34:00,
2013-02-13 18:35:00,44.3,16.1,29.69,NNW,338,8.3,8.3,32,0.00,,,0.00,WUHU216HW,2013-02-14 01:35:00,
2013-02-13 18:39:00,44.1,15.9,29.69,NNW,338,4.5,8.3,32,0.00,,,0.00,WUHU216HW,2013-02-14 01:39:00,
2013-02-13 18:40:00,44.1,15.9,29.69,NNW,338,8.5,8.5,32,0.00,,,0.00,WUHU216HW,2013-02-14 01:40:00,
2013-02-13 18:44:00,43.9,15.9,29.69,North,0,1.1,8.5,32,0.00,,,0.00,WUHU216HW,2013-02-14 01:44:00,
2013-02-13 18:45:00,43.9,15.9,29.69,North,0,4.9,8.5,32,0.00,,,0.00,WUHU216HW,2013-02-14 01:45:00,
2013-02-13 18:49:00,43.7,16.3,29.69,NNW,338,4.5,8.5,33,0.00,,,0.00,WUHU216HW,2013-02-14 01:49:00,
2013-02-13 18:50:00,43.7,16.3,29.69,NNW,338,4.9,5.4,33,0.00,,,0.00,WUHU216HW,2013-02-14 01:50:00,
2013-02-13 18:54:00,43.6,16.1,29.70,NW,315,1.8,5.4,33,0.00,,,0.00,WUHU216HW,2013-02-14 01:54:00,
2013-02-13 18:55:00,43.6,16.1,29.70,North,0,2.9,5.4,33,0.00,,,0.00,WUHU216HW,2013-02-14 01:55:00,
2013-02-13 18:56:00,43.6,16.1,29.70,NNW,338,6.3,6.3,33,0.00,,,0.00,WUHU216HW,2013-02-14 01:56:00,
2013-02-13 19:00:00,43.4,16.0,29.70,NNE,23,2.5,6.3,33,0.00,,,0.00,WUHU216HW,2013-02-14 02:00:00,
2013-02-13 19:01:00,43.2,15.9,29.70,NE,45,1.3,6.3,33,0.00,,,0.00,WUHU216HW,2013-02-14 02:01:00,
2013-02-13 19:05:00,43.2,15.9,29.70,NW,315,1.1,6.3,33,0.00,,,0.00,WUHU216HW,2013-02-14 02:05:00,
2013-02-13 19:06:00,43.2,15.9,29.70,NW,315,1.1,3.8,33,0.00,,,0.00,WUHU216HW,2013-02-14 02:06:00,
2013-02-13 19:10:00,43.4,16.0,29.70,NNE,23,1.1,3.4,33,0.00,,,0.00,WUHU216HW,2013-02-14 02:10:00,
2013-02-13 19:11:00,43.4,16.0,29.70,NNE,23,1.1,3.4,33,0.00,,,0.00,WUHU216HW,2013-02-14 02:11:00,
2013-02-13 19:12:00,43.4,16.0,29.70,North,0,4.0,4.0,33,0.00,,,0.00,WUHU216HW,2013-02-14 02:12:00,
2013-02-13 19:15:00,43.4,16.0,29.70,North,0,3.6,4.0,33,0.00,,,0.00,WUHU216HW,2013-02-14 02:15:00,
2013-02-13 19:16:00,43.4,16.0,29.70,North,0,3.6,4.0,33,0.00,,,0.00,WUHU216HW,2013-02-14 02:16:00,
2013-02-13 19:17:00,43.4,16.0,29.70,North,0,3.6,4.0,33,0.00,,,0.00,WUHU216HW,2013-02-14 02:17:00,
2013-02-13 19:20:00,43.4,16.0,29.70,NNW,338,2.5,4.7,33,0.00,,,0.00,WUHU216HW,2013-02-14 02:20:00,
2013-02-13 19:21:00,43.4,16.0,29.70,NNW,338,2.5,4.7,33,0.00,,,0.00,WUHU216HW,2013-02-14 02:21:00,
2013-02-13 19:22:00,43.2,15.9,29.70,NNE,23,5.8,5.8,33,0.00,,,0.00,WUHU216HW,2013-02-14 02:22:00,
2013-02-13 19:25:00,43.0,15.0,29.70,NNE,23,8.9,8.9,32,0.00,,,0.00,WUHU216HW,2013-02-14 02:25:00,
2013-02-13 19:26:00,43.0,15.0,29.70,NNE,23,8.9,8.9,32,0.00,,,0.00,WUHU216HW,2013-02-14 02:26:00,
2013-02-13 19:27:00,43.0,15.0,29.70,NNW,338,9.8,9.8,32,0.00,,,0.00,WUHU216HW,2013-02-14 02:27:00,
2013-02-13 19:31:00,42.8,15.5,29.70,North,0,6.3,9.8,33,0.00,,,0.00,WUHU216HW,2013-02-14 02:31:00,
2013-02-13 19:32:00,42.8,15.5,29.71,NE,45,7.2,9.8,33,0.00,,,0.00,WUHU216HW,2013-02-14 02:32:00,
2013-02-13 19:36:00,42.8,15.5,29.71,NNE,23,4.9,9.8,33,0.00,,,0.00,WUHU216HW,2013-02-14 02:36:00,
2013-02-13 19:37:00,42.8,14.9,29.71,NE,45,3.8,8.5,32,0.00,,,0.00,WUHU216HW,2013-02-14 02:37:00,
2013-02-13 19:41:00,42.8,15.5,29.71,NNE,23,3.4,8.5,33,0.00,,,0.00,WUHU216HW,2013-02-14 02:41:00,
2013-02-13 19:42:00,42.8,15.5,29.71,NE,45,2.5,8.5,33,0.00,,,0.00,WUHU216HW,2013-02-14 02:42:00,
2013-02-13 19:43:00,42.8,15.5,29.71,NNE,23,2.7,4.9,33,0.00,,,0.00,WUHU216HW,2013-02-14 02:43:00,
2013-02-13 19:46:00,42.7,15.4,29.71,NE,45,2.5,4.7,33,0.00,,,0.00,WUHU216HW,2013-02-14 02:46:00,
2013-02-13 19:47:00,42.7,15.4,29.71,North,0,5.6,5.6,33,0.00,,,0.00,WUHU216HW,2013-02-14 02:47:00,
2013-02-13 19:48:00,42.7,15.4,29.71,North,0,4.0,5.6,33,0.00,,,0.00,WUHU216HW,2013-02-14 02:48:00,
2013-02-13 19:51:00,42.7,15.4,29.72,NE,45,4.9,5.6,33,0.00,,,0.00,WUHU216HW,2013-02-14 02:51:00,
2013-02-13 19:52:00,42.7,15.4,29.72,NNE,23,3.1,5.6,33,0.00,,,0.00,WUHU216HW,2013-02-14 02:52:00,
2013-02-13 19:53:00,42.7,15.4,29.71,NNE,23,1.8,5.6,33,0.00,,,0.00,WUHU216HW,2013-02-14 02:53:00,
2013-02-13 19:57:00,42.5,15.2,29.72,NNE,23,4.0,4.9,33,0.00,,,0.00,WUHU216HW,2013-02-14 02:57:00,
2013-02-13 19:59:00,42.5,15.2,29.72,NE,45,6.7,6.7,33,0.00,,,0.00,WUHU216HW,2013-02-14 02:59:00,
2013-02-13 20:02:00,42.3,15.0,29.72,North,0,4.0,6.7,33,0.00,,,0.00,WUHU216HW,2013-02-14 03:02:00,
2013-02-13 20:04:00,42.3,15.0,29.72,NNE,23,3.4,6.7,33,0.00,,,0.00,WUHU216HW,2013-02-14 03:04:00,
2013-02-13 20:07:00,42.3,15.0,29.72,North,0,2.5,6.7,33,0.00,,,0.00,WUHU216HW,2013-02-14 03:07:00,
2013-02-13 20:09:00,42.3,15.0,29.72,North,0,1.6,6.7,33,0.00,,,0.00,WUHU216HW,2013-02-14 03:09:00,
2013-02-13 20:12:00,42.1,15.0,29.72,NNE,23,3.6,4.0,33,0.00,,,0.00,WUHU216HW,2013-02-14 03:12:00,
2013-02-13 20:14:00,42.1,15.0,29.72,North,0,2.5,4.0,33,0.00,,,0.00,WUHU216HW,2013-02-14 03:14:00,
2013-02-13 20:17:00,42.1,15.0,29.72,NNW,338,0.9,4.0,33,0.00,,,0.00,WUHU216HW,2013-02-14 03:17:00,
2013-02-13 20:19:00,42.1,15.0,29.72,North,0,1.8,4.0,33,0.00,,,0.00,WUHU216HW,2013-02-14 03:19:00,
2013-02-13 20:22:00,42.1,15.0,29.72,NNW,338,0.0,2.7,33,0.00,,,0.00,WUHU216HW,2013-02-14 03:22:00,
2013-02-13 20:24:00,42.1,15.0,29.72,NNE,23,2.9,2.9,33,0.00,,,0.00,WUHU216HW,2013-02-14 03:24:00,
2013-02-13 20:27:00,42.1,15.0,29.72,North,0,0.2,2.9,33,0.00,,,0.00,WUHU216HW,2013-02-14 03:27:00,
2013-02-13 20:28:00,42.1,15.0,29.72,North,0,0.2,2.9,33,0.00,,,0.00,WUHU216HW,2013-02-14 03:28:00,
2013-02-13 20:29:00,42.1,15.0,29.72,NE,45,1.8,2.9,33,0.00,,,0.00,WUHU216HW,2013-02-14 03:29:00,
2013-02-13 20:32:00,41.9,15.4,29.72,NE,45,2.5,2.9,34,0.00,,,0.00,WUHU216HW,2013-02-14 03:32:00,
2013-02-13 20:33:00,41.9,15.4,29.72,NNE,23,1.3,2.7,34,0.00,,,0.00,WUHU216HW,2013-02-14 03:33:00,
2013-02-13 20:34:00,41.9,15.4,29.72,North,0,2.2,2.7,34,0.00,,,0.00,WUHU216HW,2013-02-14 03:34:00,
2013-02-13 20:38:00,41.8,15.9,29.72,NNE,23,1.3,2.7,35,0.00,,,0.00,WUHU216HW,2013-02-14 03:38:00,
2013-02-13 20:39:00,41.8,15.9,29.72,North,0,0.4,2.7,35,0.00,,,0.00,WUHU216HW,2013-02-14 03:39:00,
2013-02-13 20:43:00,41.8,15.9,29.72,North,0,0.4,2.9,35,0.00,,,0.00,WUHU216HW,2013-02-14 03:43:00,
2013-02-13 20:44:00,41.8,15.9,29.72,NNE,23,0.4,2.9,35,0.00,,,0.00,WUHU216HW,2013-02-14 03:44:00,
2013-02-13 20:48:00,41.8,15.9,29.72,NNE,23,3.1,3.1,35,0.00,,,0.00,WUHU216HW,2013-02-14 03:48:00,
2013-02-13 20:49:00,41.8,15.9,29.72,NNE,23,2.9,3.1,35,0.00,,,0.00,WUHU216HW,2013-02-14 03:49:00,
2013-02-13 20:53:00,41.6,15.8,29.72,NNW,338,1.1,4.9,35,0.00,,,0.00,WUHU216HW,2013-02-14 03:53:00,
2013-02-13 20:54:00,41.6,15.8,29.72,NNE,23,1.8,4.9,35,0.00,,,0.00,WUHU216HW,2013-02-14 03:54:00,
2013-02-13 20:55:00,41.6,15.8,29.72,North,0,0.4,4.9,35,0.00,,,0.00,WUHU216HW,2013-02-14 03:55:00,
2013-02-13 20:58:00,41.4,15.6,29.72,North,0,2.2,4.9,35,0.00,,,0.00,WUHU216HW,2013-02-14 03:58:00,
2013-02-13 20:59:00,41.4,15.6,29.72,North,0,4.0,4.9,35,0.00,,,0.00,WUHU216HW,2013-02-14 03:59:00,
2013-02-13 21:00:00,41.4,15.6,29.72,NNE,23,2.9,4.9,35,0.00,,,0.00,WUHU216HW,2013-02-14 04:00:00,
2013-02-13 21:03:00,41.4,15.6,29.72,NNE,23,2.0,4.0,35,0.00,,,0.00,WUHU216HW,2013-02-14 04:03:00,
2013-02-13 21:04:00,41.4,15.6,29.72,NNE,23,2.0,4.0,35,0.00,,,0.00,WUHU216HW,2013-02-14 04:04:00,
2013-02-13 21:05:00,41.4,16.3,29.72,NNE,23,4.0,4.9,36,0.00,,,0.00,WUHU216HW,2013-02-14 04:05:00,
2013-02-13 21:08:00,41.0,15.9,29.72,North,0,3.6,4.9,36,0.00,,,0.00,WUHU216HW,2013-02-14 04:08:00,
2013-02-13 21:09:00,41.0,15.9,29.72,NNE,23,3.4,4.9,36,0.00,,,0.00,WUHU216HW,2013-02-14 04:09:00,
2013-02-13 21:10:00,41.0,15.9,29.72,North,0,2.0,4.9,36,0.00,,,0.00,WUHU216HW,2013-02-14 04:10:00,
2013-02-13 21:13:00,41.0,15.9,29.72,NNE,23,2.0,4.9,36,0.00,,,0.00,WUHU216HW,2013-02-14 04:13:00,
2013-02-13 21:14:00,41.0,15.9,29.72,NNE,23,2.0,4.5,36,0.00,,,0.00,WUHU216HW,2013-02-14 04:14:00,
2013-02-13 21:15:00,40.9,15.8,29.72,North,0,2.5,4.5,36,0.00,,,0.00,WUHU216HW,2013-02-14 04:15:00,
2013-02-13 21:18:00,40.9,15.8,29.72,North,0,0.0,3.4,36,0.00,,,0.00,WUHU216HW,2013-02-14 04:18:00,
2013-02-13 21:19:00,40.9,15.8,29.72,NNW,338,0.0,2.5,36,0.00,,,0.00,WUHU216HW,2013-02-14 04:19:00,
2013-02-13 21:20:00,40.9,15.8,29.72,NNW,338,0.2,2.5,36,0.00,,,0.00,WUHU216HW,2013-02-14 04:20:00,
2013-02-13 21:23:00,40.7,15.7,29.72,North,0,0.2,2.5,36,0.00,,,0.00,WUHU216HW,2013-02-14 04:23:00,
2013-02-13 21:24:00,40.7,15.7,29.72,North,0,0.2,2.5,36,0.00,,,0.00,WUHU216HW,2013-02-14 04:24:00,
2013-02-13 21:25:00,40.7,15.7,29.72,North,0,0.7,2.0,36,0.00,,,0.00,WUHU216HW,2013-02-14 04:25:00,
2013-02-13 21:28:00,40.7,15.7,29.72,North,0,1.6,1.6,36,0.00,,,0.00,WUHU216HW,2013-02-14 04:28:00,
2013-02-13 21:29:00,40.7,15.7,29.72,NNW,338,0.9,1.6,36,0.00,,,0.00,WUHU216HW,2013-02-14 04:29:00,
2013-02-13 21:31:00,40.7,15.7,29.72,NNW,338,1.1,1.6,36,0.00,,,0.00,WUHU216HW,2013-02-14 04:31:00,
2013-02-13 21:33:00,40.7,15.7,29.72,NNW,338,0.2,1.6,36,0.00,,,0.00,WUHU216HW,2013-02-14 04:33:00,
2013-02-13 21:34:00,40.7,15.7,29.72,NNW,338,0.2,1.6,36,0.00,,,0.00,WUHU216HW,2013-02-14 04:34:00,
2013-02-13 21:37:00,40.7,16.3,29.72,NNE,23,1.6,1.6,37,0.00,,,0.00,WUHU216HW,2013-02-14 04:37:00,
2013-02-13 21:39:00,40.7,16.3,29.72,North,0,2.0,2.0,37,0.00,,,0.00,WUHU216HW,2013-02-14 04:39:00,
2013-02-13 21:42:00,40.5,16.1,29.72,North,0,0.4,2.0,37,0.00,,,0.00,WUHU216HW,2013-02-14 04:42:00,
2013-02-13 21:44:00,40.5,16.1,29.72,NNW,338,0.0,2.0,37,0.00,,,0.00,WUHU216HW,2013-02-14 04:44:00,
2013-02-13 21:47:00,40.5,16.1,29.72,North,0,0.0,2.0,37,0.00,,,0.00,WUHU216HW,2013-02-14 04:47:00,
2013-02-13 21:49:00,40.5,16.1,29.72,East,90,1.1,1.1,37,0.00,,,0.00,WUHU216HW,2013-02-14 04:49:00,
2013-02-13 21:51:00,40.3,15.9,29.72,NE,45,0.4,1.1,37,0.00,,,0.00,WUHU216HW,2013-02-14 04:51:00,
2013-02-13 21:52:00,40.3,15.9,29.72,NE,45,0.0,1.1,37,0.00,,,0.00,WUHU216HW,2013-02-14 04:52:00,
2013-02-13 21:54:00,40.3,15.9,29.72,WSW,248,1.1,1.1,37,0.00,,,0.00,WUHU216HW,2013-02-14 04:54:00,
2013-02-13 21:55:00,40.1,15.8,29.72,SSW,203,1.6,1.6,37,0.00,,,0.00,WUHU216HW,2013-02-14 04:55:00,
2013-02-13 21:56:00,40.1,15.8,29.72,SSW,203,0.2,1.6,37,0.00,,,0.00,WUHU216HW,2013-02-14 04:56:00,
2013-02-13 21:57:00,40.1,15.8,29.72,SSW,203,0.0,1.6,37,0.00,,,0.00,WUHU216HW,2013-02-14 04:57:00,
2013-02-13 21:59:00,40.0,15.7,29.72,South,180,0.0,1.6,37,0.00,,,0.00,WUHU216HW,2013-02-14 04:59:00,
2013-02-13 22:00:00,40.0,15.7,29.72,South,180,0.0,1.6,37,0.00,,,0.00,WUHU216HW,2013-02-14 05:00:00,
2013-02-13 22:05:00,40.0,15.7,29.72,WSW,248,1.1,1.1,37,0.00,,,0.00,WUHU216HW,2013-02-14 05:05:00,
2013-02-13 22:10:00,40.0,15.7,29.72,SW,225,0.4,2.5,37,0.00,,,0.00,WUHU216HW,2013-02-14 05:10:00,
2013-02-13 22:15:00,40.0,15.7,29.72,South,180,2.0,2.5,37,0.00,,,0.00,WUHU216HW,2013-02-14 05:15:00,
2013-02-13 22:20:00,39.8,16.1,29.72,South,180,0.0,2.0,38,0.00,,,0.00,WUHU216HW,2013-02-14 05:20:00,
2013-02-13 22:25:00,39.8,15.5,29.73,East,90,0.0,1.3,37,0.00,,,0.00,WUHU216HW,2013-02-14 05:25:00,
2013-02-13 22:30:00,39.4,15.8,29.73,West,270,0.4,0.7,38,0.00,,,0.00,WUHU216HW,2013-02-14 05:30:00,
2013-02-13 22:35:00,39.2,15.7,29.73,WNW,293,0.7,2.5,38,0.00,,,0.00,WUHU216HW,2013-02-14 05:35:00,
2013-02-13 22:36:00,39.2,15.7,29.73,NW,315,0.4,2.5,38,0.00,,,0.00,WUHU216HW,2013-02-14 05:36:00,
2013-02-13 22:40:00,38.9,15.3,29.73,WNW,293,1.3,2.5,38,0.00,,,0.00,WUHU216HW,2013-02-14 05:40:00,
2013-02-13 22:41:00,38.9,15.3,29.73,West,270,0.2,2.5,38,0.00,,,0.00,WUHU216HW,2013-02-14 05:41:00,
2013-02-13 22:45:00,38.7,15.1,29.73,NNW,338,0.0,2.5,38,0.00,,,0.00,WUHU216HW,2013-02-14 05:45:00,
2013-02-13 22:46:00,38.7,15.1,29.73,NNW,338,0.0,2.5,38,0.00,,,0.00,WUHU216HW,2013-02-14 05:46:00,
2013-02-13 22:50:00,38.5,14.9,29.73,ENE,68,0.0,2.5,38,0.00,,,0.00,WUHU216HW,2013-02-14 05:50:00,
2013-02-13 22:51:00,38.5,14.9,29.73,NNW,338,1.1,2.5,38,0.00,,,0.00,WUHU216HW,2013-02-14 05:51:00,
2013-02-13 22:55:00,38.5,14.9,29.73,West,270,2.0,2.5,38,0.00,,,0.00,WUHU216HW,2013-02-14 05:55:00,
2013-02-13 22:56:00,38.3,14.9,29.73,West,270,0.9,2.5,38,0.00,,,0.00,WUHU216HW,2013-02-14 05:56:00,
2013-02-13 23:00:00,38.3,15.5,29.73,West,270,0.0,2.5,39,0.00,,,0.00,WUHU216HW,2013-02-14 06:00:00,
2013-02-13 23:01:00,38.3,15.5,29.73,West,270,0.0,2.5,39,0.00,,,0.00,WUHU216HW,2013-02-14 06:01:00,
2013-02-13 23:06:00,38.3,15.5,29.73,NNW,338,0.7,1.8,39,0.00,,,0.00,WUHU216HW,2013-02-14 06:06:00,
2013-02-13 23:07:00,38.3,15.5,29.73,NW,315,1.3,1.8,39,0.00,,,0.00,WUHU216HW,2013-02-14 06:07:00,
2013-02-13 23:11:00,38.2,15.3,29.73,WNW,293,1.3,3.8,39,0.00,,,0.00,WUHU216HW,2013-02-14 06:11:00,
2013-02-13 23:12:00,38.2,15.3,29.73,WNW,293,1.1,3.8,39,0.00,,,0.00,WUHU216HW,2013-02-14 06:12:00,
2013-02-13 23:16:00,38.0,15.1,29.73,WSW,248,0.4,3.8,39,0.00,,,0.00,WUHU216HW,2013-02-14 06:16:00,
2013-02-13 23:17:00,37.8,14.9,29.73,NW,315,2.2,3.8,39,0.00,,,0.00,WUHU216HW,2013-02-14 06:17:00,
2013-02-13 23:21:00,37.8,14.9,29.73,North,0,0.7,2.5,39,0.00,,,0.00,WUHU216HW,2013-02-14 06:21:00,
2013-02-13 23:22:00,37.8,14.9,29.73,North,0,0.9,2.5,39,0.00,,,0.00,WUHU216HW,2013-02-14 06:22:00,
2013-02-13 23:26:00,37.8,14.9,29.73,WNW,293,1.6,2.2,39,0.00,,,0.00,WUHU216HW,2013-02-14 06:26:00,
2013-02-13 23:27:00,37.8,15.7,29.73,NW,315,0.4,1.6,40,0.00,,,0.00,WUHU216HW,2013-02-14 06:27:00,
2013-02-13 23:31:00,37.8,15.7,29.73,NW,315,1.1,3.4,40,0.00,,,0.00,WUHU216HW,2013-02-14 06:31:00,
2013-02-13 23:32:00,37.8,15.7,29.73,NNW,338,1.1,3.4,40,0.00,,,0.00,WUHU216HW,2013-02-14 06:32:00,
2013-02-13 23:36:00,37.8,15.7,29.73,NNW,338,2.2,3.4,40,0.00,,,0.00,WUHU216HW,2013-02-14 06:36:00,
2013-02-13 23:37:00,37.8,15.7,29.73,North,0,2.2,3.4,40,0.00,,,0.00,WUHU216HW,2013-02-14 06:37:00,
2013-02-13 23:41:00,37.8,16.1,29.73,NNW,338,3.6,3.8,41,0.00,,,0.00,WUHU216HW,2013-02-14 06:41:00,
2013-02-13 23:42:00,37.6,16.0,29.73,NNW,338,3.1,3.8,41,0.00,,,0.00,WUHU216HW,2013-02-14 06:42:00,
2013-02-13 23:46:00,37.1,15.5,29.73,NNW,338,3.4,3.8,41,0.00,,,0.00,WUHU216HW,2013-02-14 06:46:00,
2013-02-13 23:47:00,37.1,16.0,29.73,NNW,338,4.3,4.3,42,0.00,,,0.00,WUHU216HW,2013-02-14 06:47:00,
2013-02-13 23:48:00,36.9,15.8,29.73,NNW,338,3.4,4.3,42,0.00,,,0.00,WUHU216HW,2013-02-14 06:48:00,
2013-02-13 23:51:00,36.7,15.7,29.73,NNW,338,1.6,4.3,42,0.00,,,0.00,WUHU216HW,2013-02-14 06:51:00,
2013-02-13 23:52:00,36.7,15.7,29.73,NNW,338,2.7,4.3,42,0.00,,,0.00,WUHU216HW,2013-02-14 06:52:00,
2013-02-13 23:53:00,36.7,15.7,29.73,NW,315,2.9,4.3,42,0.00,,,0.00,WUHU216HW,2013-02-14 06:53:00,
2013-02-13 23:56:00,36.7,16.2,29.73,NNW,338,0.4,4.3,43,0.00,,,0.00,WUHU216HW,2013-02-14 06:56:00,
2013-02-13 23:57:00,36.7,16.2,29.73,NW,315,0.0,3.8,43,0.00,,,0.00,WUHU216HW,2013-02-14 06:57:00,
2013-02-13 23:58:00,36.7,15.7,29.73,NNW,338,0.4,3.8,42,0.00,,,0.00,WUHU216HW,2013-02-14 06:58:00,